GW3448 Weather Reports


Display with metric or nautical units.
time (UTC)temp
F
wind
direction
speed
MPH
gust
MPH
rain 1hr
in
rain 24hr
in
rain mn
in
humidity
%
barometer
mb
20260510225458 78 162 3.0 10.0 0.00 0.00 0.00 37 1012.1
20260510225446 78 272 4.0 10.0 0.00 0.00 0.00 37 1012.1
20260510225433 78 171 5.0 10.0 0.00 0.00 0.00 37 1012.2
20260510225350 78 186 4.0 10.0 0.00 0.00 0.00 38 1012.2
20260510224850 77 153 2.0 7.0 0.00 0.00 0.00 40 1012.2
20260510224359 77 111 3.0 7.0 0.00 0.00 0.00 41 1012.3
20260510223856 76 139 4.0 7.0 0.00 0.00 0.00 40 1012.2
20260510223844 76 151 3.0 7.0 0.00 0.00 0.00 40 1012.3
20260510223831 76 78 3.0 8.0 0.00 0.00 0.00 40 1012.3
20260510223548 76 128 2.0 8.0 0.00 0.00 0.00 41 1012.3
20260510223318 76 98 2.0 8.0 0.00 0.00 0.00 40 1012.3
20260510222502 77 181 6.0 8.0 0.00 0.00 0.00 40 1012.3
20260510222401 77 196 5.0 8.0 0.00 0.00 0.00 41 1012.3
20260510222309 77 201 3.0 8.0 0.00 0.00 0.00 40 1012.3
20260510222201 77 185 2.0 7.0 0.00 0.00 0.00 41 1012.4
20260510222103 77 162 3.0 7.0 0.00 0.00 0.00 41 1012.3
20260510222001 77 122 4.0 7.0 0.00 0.00 0.00 39 1012.3
20260510221901 77 178 3.0 7.0 0.00 0.00 0.00 40 1012.3
20260510221810 77 151 2.0 7.0 0.00 0.00 0.00 40 1012.3
20260510221708 77 130 2.0 7.0 0.00 0.00 0.00 41 1012.3
20260510221604 77 142 2.0 7.0 0.00 0.00 0.00 41 1012.2
20260510221528 77 117 3.0 7.0 0.00 0.00 0.00 41 1012.2
20260510221514 77 108 4.0 7.0 0.00 0.00 0.00 41 1012.1
20260510221504 77 146 4.0 7.0 0.00 0.00 0.00 41 1012.1
20260510221221 77 146 3.0 7.0 0.00 0.00 0.00 40 1012.1
20260510220901 77 76 3.0 7.0 0.00 0.00 0.00 41 1012.1
20260510220806 77 94 3.0 6.0 0.00 0.00 0.00 40 1012.1
20260510220701 77 116 2.0 5.0 0.00 0.00 0.00 41 1012.2
20260510220602 77 81 2.0 5.0 0.00 0.00 0.00 41 1012.2
20260510220539 77 89 2.0 7.0 0.00 0.00 0.00 42 1012.3
20260510220525 77 139 2.0 7.0 0.00 0.00 0.00 41 1012.3
20260510220202 77 96 1.0 7.0 0.00 0.00 0.00 40 1012.4
20260510220012 77 68 2.0 8.0 0.00 0.00 0.00 40 1012.5
20260510215955 77 67 2.0 8.0 0.00 0.00 0.00 39 1012.5
20260510215943 77 63 4.0 8.0 0.00 0.00 0.00 40 1012.6
20260510215657 77 98 3.0 8.0 0.00 0.00 0.00 40 1012.5
20260510215645 77 73 2.0 8.0 0.00 0.00 0.00 41 1012.6
20260510215412 77 119 4.0 8.0 0.00 0.00 0.00 41 1012.6
20260510215348 77 65 3.0 8.0 0.00 0.00 0.00 40 1012.6
20260510214958 78 112 4.0 7.0 0.00 0.00 0.00 40 1012.7
20260510214857 78 71 2.0 7.0 0.00 0.00 0.00 41 1012.6
20260510214800 78 61 2.0 8.0 0.00 0.00 0.00 41 1012.6
20260510214727 78 105 2.0 8.0 0.00 0.00 0.00 41 1012.7
20260510214712 78 88 2.0 8.0 0.00 0.00 0.00 40 1012.7
20260510214701 78 71 2.0 8.0 0.00 0.00 0.00 42 1012.7
20260510214429 78 93 2.0 8.0 0.00 0.00 0.00 41 1012.8
20260510214053 78 82 4.0 8.0 0.00 0.00 0.00 41 1012.8
20260510213954 78 50 4.0 8.0 0.00 0.00 0.00 40 1012.8
20260510213851 78 90 4.0 8.0 0.00 0.00 0.00 40 1012.8
20260510213754 78 69 4.0 8.0 0.00 0.00 0.00 41 1012.8
20260510213650 78 148 4.0 7.0 0.00 0.00 0.00 40 1012.7
20260510213549 78 102 4.0 8.0 0.00 0.00 0.00 40 1012.7
20260510213449 78 145 3.0 8.0 0.00 0.00 0.00 41 1012.6
20260510213350 78 175 2.0 8.0 0.00 0.00 0.00 41 1012.6
20260510213332 78 103 2.0 8.0 0.00 0.00 0.00 41 1012.6
20260510213306 78 98 2.0 8.0 0.00 0.00 0.00 41 1012.7
20260510212943 78 140 3.0 8.0 0.00 0.00 0.00 40 1012.7
20260510212911 78 252 4.0 8.0 0.00 0.00 0.00 40 1012.8
20260510212859 78 71 5.0 8.0 0.00 0.00 0.00 40 1012.8
20260510212835 78 146 4.0 8.0 0.00 0.00 0.00 40 1012.8
20260510212820 78 142 4.0 8.0 0.00 0.00 0.00 40 1012.8
20260510212243 78 85 3.0 7.0 0.00 0.00 0.00 40 1012.6
20260510212138 78 90 2.0 7.0 0.00 0.00 0.00 40 1012.5
20260510212039 78 115 2.0 7.0 0.00 0.00 0.00 40 1012.5
20260510211937 78 153 3.0 7.0 0.00 0.00 0.00 40 1012.6
20260510211919 78 112 4.0 7.0 0.00 0.00 0.00 40 1012.6
20260510211907 78 112 3.0 7.0 0.00 0.00 0.00 40 1012.7
20260510211534 78 96 1.0 5.0 0.00 0.00 0.00 38 1012.9
20260510211434 78 153 2.0 7.0 0.00 0.00 0.00 38 1013.0
20260510211333 78 85 2.0 7.0 0.00 0.00 0.00 38 1013.0
20260510211242 78 81 1.0 7.0 0.00 0.00 0.00 39 1013.0
20260510211200 77 67 2.0 8.0 0.00 0.00 0.00 40 1013.0
20260510211149 77 96 2.0 8.0 0.00 0.00 0.00 39 1013.0
20260510210859 77 74 2.0 8.0 0.00 0.00 0.00 38 1013.0
20260510210847 77 98 3.0 8.0 0.00 0.00 0.00 39 1013.0
20260510210824 77 132 4.0 8.0 0.00 0.00 0.00 38 1013.0
20260510210807 77 142 3.0 8.0 0.00 0.00 0.00 38 1013.1
20260510210239 77 141 4.0 8.0 0.00 0.00 0.00 38 1013.1
20260510210159 77 136 3.0 5.0 0.00 0.00 0.00 38 1013.1
20260510210150 77 142 1.0 5.0 0.00 0.00 0.00 38 1013.1
20260510205832 77 69 1.0 4.0 0.00 0.00 0.00 39 1013.0
20260510205817 77 62 1.0 4.0 0.00 0.00 0.00 40 1013.0
20260510205752 77 46 2.0 4.0 0.00 0.00 0.00 40 1013.0
20260510205430 77 102 3.0 4.0 0.00 0.00 0.00 39 1013.0
20260510205329 77 146 2.0 4.0 0.00 0.00 0.00 39 1013.0
20260510205253 77 136 2.0 4.0 0.00 0.00 0.00 39 1013.0
20260510205229 77 148 2.0 4.0 0.00 0.00 0.00 39 1013.0
20260510205218 78 65 1.0 4.0 0.00 0.00 0.00 39 1013.0
20260510204829 78 68 2.0 4.0 0.00 0.00 0.00 39 1013.1
20260510204730 78 80 2.0 4.0 0.00 0.00 0.00 40 1013.1
20260510204630 77 63 2.0 4.0 0.00 0.00 0.00 40 1013.0
20260510204602 77 17 1.0 4.0 0.00 0.00 0.00 41 1013.0
20260510204551 77 59 0.0 4.0 0.00 0.00 0.00 40 1013.0
20260510204237 77 96 2.0 4.0 0.00 0.00 0.00 39 1013.0
20260510204205 77 22 2.0 4.0 0.00 0.00 0.00 40 1013.0
20260510204152 77 45 1.0 3.0 0.00 0.00 0.00 39 1013.0
20260510203832 77 247 0.0 3.0 0.00 0.00 0.00 40 1012.9
20260510203731 77 247 1.0 3.0 0.00 0.00 0.00 39 1012.9
20260510203634 77 247 2.0 3.0 0.00 0.00 0.00 38 1013.0
20260510203529 77 221 1.0 3.0 0.00 0.00 0.00 40 1013.0
20260510203430 77 25 0.0 4.0 0.00 0.00 0.00 40 1013.0
20260510203356 77 186 1.0 4.0 0.00 0.00 0.00 39 1013.0
20260510203343 77 142 2.0 4.0 0.00 0.00 0.00 39 1013.0
20260510203320 76 109 2.0 4.0 0.00 0.00 0.00 39 1013.0
20260510203307 76 79 2.0 5.0 0.00 0.00 0.00 39 1013.1
20260510202800 76 174 1.0 5.0 0.00 0.00 0.00 40 1013.1
20260510202736 76 113 2.0 7.0 0.00 0.00 0.00 39 1013.0
20260510202722 76 40 2.0 7.0 0.00 0.00 0.00 40 1013.0
20260510202709 76 346 2.0 7.0 0.00 0.00 0.00 42 1012.9
20260510202138 76 312 2.0 7.0 0.00 0.00 0.00 43 1013.0
20260510202030 76 27 2.0 7.0 0.00 0.00 0.00 42 1012.9
20260510201929 75 352 4.0 7.0 0.00 0.00 0.00 42 1013.0
20260510201829 75 346 4.0 7.0 0.00 0.00 0.00 41 1013.0
20260510201728 75 26 1.0 7.0 0.00 0.00 0.00 41 1012.9
20260510201627 75 342 0.0 4.0 0.00 0.00 0.00 41 1012.8
20260510201529 75 220 1.0 4.0 0.00 0.00 0.00 41 1012.8
20260510201425 75 202 2.0 4.0 0.00 0.00 0.00 40 1012.8
20260510201324 75 295 2.0 4.0 0.00 0.00 0.00 41 1012.8
20260510201225 75 317 2.0 4.0 0.00 0.00 0.00 41 1012.9
20260510201124 75 346 2.0 4.0 0.00 0.00 0.00 40 1012.9
20260510201025 75 0 2.0 4.0 0.00 0.00 0.00 41 1012.9
20260510200922 75 275 3.0 4.0 0.00 0.00 0.00 41 1012.9
20260510200821 75 262 2.0 4.0 0.00 0.00 0.00 42 1012.9
20260510200720 75 332 2.0 3.0 0.00 0.00 0.00 42 1012.9
20260510200623 75 5 1.0 4.0 0.00 0.00 0.00 42 1012.9
20260510200519 75 34 1.0 4.0 0.00 0.00 0.00 43 1013.0
20260510200419 75 286 1.0 4.0 0.00 0.00 0.00 44 1013.0
20260510200317 75 317 1.0 4.0 0.00 0.00 0.00 41 1013.0
20260510200218 75 249 1.0 4.0 0.00 0.00 0.00 42 1013.0
20260510200116 75 281 1.0 4.0 0.00 0.00 0.00 43 1013.0
20260510200019 75 282 1.0 4.0 0.00 0.00 0.00 42 1013.1
20260510195947 75 261 2.0 4.0 0.00 0.00 0.00 43 1013.0
20260510195934 75 0 2.0 4.0 0.00 0.00 0.00 42 1013.0
20260510195614 74 258 2.0 4.0 0.00 0.00 0.00 44 1013.0
20260510195506 74 346 2.0 4.0 0.00 0.00 0.00 43 1013.0
20260510195406 74 5 2.0 4.0 0.00 0.00 0.00 43 1013.0
20260510195306 74 246 2.0 4.0 0.00 0.00 0.00 43 1013.0
20260510195210 74 36 1.0 4.0 0.00 0.00 0.00 44 1012.9
20260510195130 74 69 1.0 4.0 0.00 0.00 0.00 44 1012.9
20260510195036 74 16 2.0 4.0 0.00 0.00 0.00 42 1012.9
20260510195023 74 85 2.0 4.0 0.00 0.00 0.00 42 1012.8
20260510194704 74 25 2.0 4.0 0.00 0.00 0.00 42 1013.0
20260510194603 74 347 2.0 4.0 0.00 0.00 0.00 43 1013.0
20260510194501 74 306 2.0 5.0 0.00 0.00 0.00 43 1013.2
20260510194401 74 26 2.0 5.0 0.00 0.00 0.00 43 1013.2
20260510194304 74 346 2.0 5.0 0.00 0.00 0.00 44 1013.2
20260510194209 74 320 1.0 5.0 0.00 0.00 0.00 43 1013.1
20260510194100 73 0 1.0 5.0 0.00 0.00 0.00 43 1013.2
20260510194001 73 352 1.0 5.0 0.00 0.00 0.00 44 1013.2
20260510193901 73 343 1.0 5.0 0.00 0.00 0.00 43 1013.1
20260510193800 73 352 2.0 5.0 0.00 0.00 0.00 42 1013.1
20260510193727 73 352 2.0 5.0 0.00 0.00 0.00 42 1013.1
20260510193704 73 332 2.0 5.0 0.00 0.00 0.00 43 1013.1
20260510193650 73 336 2.0 5.0 0.00 0.00 0.00 43 1013.2
20260510193638 73 346 2.0 5.0 0.00 0.00 0.00 43 1013.1
20260510193626 74 350 2.0 5.0 0.00 0.00 0.00 44 1013.2
20260510193122 73 24 1.0 4.0 0.00 0.00 0.00 44 1013.2
20260510192759 73 0 3.0 4.0 0.00 0.00 0.00 44 1013.2
20260510192658 73 340 3.0 5.0 0.00 0.00 0.00 44 1013.2
20260510192558 73 346 2.0 5.0 0.00 0.00 0.00 45 1013.3
20260510192457 73 315 1.0 5.0 0.00 0.00 0.00 45 1013.3
20260510192426 73 352 1.0 5.0 0.00 0.00 0.00 45 1013.4
20260510192412 73 296 1.0 5.0 0.00 0.00 0.00 45 1013.4
20260510192048 73 229 2.0 5.0 0.00 0.00 0.00 44 1013.4
20260510191948 73 252 2.0 5.0 0.00 0.00 0.00 44 1013.4
20260510191848 73 346 1.0 5.0 0.00 0.00 0.00 45 1013.4
20260510191747 73 14 1.0 5.0 0.00 0.00 0.00 44 1013.4
20260510191655 72 88 1.0 4.0 0.00 0.00 0.00 45 1013.4
20260510191546 72 338 0.0 4.0 0.00 0.00 0.00 45 1013.4
20260510191446 72 350 2.0 4.0 0.00 0.00 0.00 44 1013.4
20260510191341 72 348 2.0 5.0 0.00 0.00 0.00 45 1013.4
20260510191237 72 352 1.0 6.0 0.00 0.00 0.00 47 1013.5
20260510191149 72 347 1.0 6.0 0.00 0.00 0.00 44 1013.4
20260510191036 72 200 1.0 6.0 0.00 0.00 0.00 44 1013.5
20260510190937 72 222 1.0 6.0 0.00 0.00 0.00 44 1013.4
20260510190836 72 21 2.0 6.0 0.00 0.00 0.00 45 1013.5
20260510190741 72 9 2.0 7.0 0.00 0.00 0.00 44 1013.5
20260510190719 72 352 2.0 7.0 0.00 0.00 0.00 44 1013.5
20260510190654 72 56 4.0 7.0 0.00 0.00 0.00 44 1013.4
20260510190330 72 0 2.0 7.0 0.00 0.00 0.00 45 1013.4
20260510190231 72 325 2.0 7.0 0.00 0.00 0.00 44 1013.4
20260510190130 72 264 3.0 7.0 0.00 0.00 0.00 44 1013.5
20260510190032 72 243 3.0 7.0 0.00 0.00 0.00 45 1013.5
20260510185930 72 258 3.0 7.0 0.00 0.00 0.00 45 1013.5
20260510185834 72 306 2.0 7.0 0.00 0.00 0.00 45 1013.5
20260510185730 72 254 2.0 3.0 0.00 0.00 0.00 45 1013.5
20260510185643 72 269 2.0 3.0 0.00 0.00 0.00 45 1013.5
20260510185530 72 256 2.0 4.0 0.00 0.00 0.00 45 1013.6
20260510185438 72 347 2.0 4.0 0.00 0.00 0.00 44 1013.6
20260510185422 72 344 2.0 4.0 0.00 0.00 0.00 45 1013.6
20260510185410 72 321 1.0 5.0 0.00 0.00 0.00 46 1013.6
20260510185359 71 290 1.0 5.0 0.00 0.00 0.00 46 1013.6
20260510185114 71 275 1.0 5.0 0.00 0.00 0.00 45 1013.6
20260510185103 71 263 1.0 5.0 0.00 0.00 0.00 45 1013.6
20260510184802 71 315 2.0 5.0 0.00 0.00 0.00 44 1013.6
20260510184502 72 253 2.0 5.0 0.00 0.00 0.00 44 1013.4
20260510184451 72 344 2.0 5.0 0.00 0.00 0.00 44 1013.3
20260510184138 72 273 2.0 4.0 0.00 0.00 0.00 45 1013.4
20260510184101 72 320 1.0 3.0 0.00 0.00 0.00 45 1013.4
20260510184049 71 65 1.0 3.0 0.00 0.00 0.00 45 1013.4
20260510183726 71 262 1.0 3.0 0.00 0.00 0.00 44 1013.5
20260510183622 71 311 1.0 3.0 0.00 0.00 0.00 44 1013.5
20260510183522 71 341 1.0 4.0 0.00 0.00 0.00 44 1013.7
20260510183418 71 334 0.0 4.0 0.00 0.00 0.00 45 1013.7
20260510183322 71 351 1.0 4.0 0.00 0.00 0.00 45 1013.7
20260510183218 71 352 2.0 4.0 0.00 0.00 0.00 45 1013.7
20260510183117 71 9 2.0 4.0 0.00 0.00 0.00 45 1013.7
20260510183016 71 309 2.0 4.0 0.00 0.00 0.00 46 1013.8
20260510182949 71 285 1.0 4.0 0.00 0.00 0.00 46 1013.8
20260510182934 71 269 2.0 4.0 0.00 0.00 0.00 46 1013.8
20260510182613 70 180 1.0 4.0 0.00 0.00 0.00 45 1013.7
20260510182512 70 273 1.0 4.0 0.00 0.00 0.00 45 1013.7
20260510182410 70 275 1.0 4.0 0.00 0.00 0.00 47 1013.8
20260510182352 70 242 2.0 4.0 0.00 0.00 0.00 46 1013.7
20260510182342 70 352 1.0 4.0 0.00 0.00 0.00 46 1013.6
20260510182010 70 239 1.0 3.0 0.00 0.00 0.00 46 1013.6
20260510181908 70 217 1.0 3.0 0.00 0.00 0.00 46 1013.6
20260510181825 70 9 1.0 3.0 0.00 0.00 0.00 47 1013.6
20260510181708 69 13 1.0 3.0 0.00 0.00 0.00 48 1013.6
20260510181607 69 9 1.0 3.0 0.00 0.00 0.00 47 1013.6
20260510181505 69 144 1.0 3.0 0.00 0.00 0.00 47 1013.6
20260510181403 69 207 2.0 3.0 0.00 0.00 0.00 48 1013.6
20260510181304 69 158 2.0 3.0 0.00 0.00 0.00 48 1013.7
20260510181201 69 111 2.0 4.0 0.00 0.00 0.00 48 1013.7
20260510181103 69 44 1.0 4.0 0.00 0.00 0.00 48 1013.7
20260510181002 69 5 1.0 4.0 0.00 0.00 0.00 48 1013.7
20260510180903 69 315 1.0 4.0 0.00 0.00 0.00 48 1013.8
20260510180753 68 352 2.0 4.0 0.00 0.00 0.00 49 1013.8
20260510180730 69 0 2.0 4.0 0.00 0.00 0.00 48 1013.8
20260510180704 69 352 2.0 4.0 0.00 0.00 0.00 49 1013.9
20260510180412 69 294 2.0 4.0 0.00 0.00 0.00 49 1013.8
20260510180400 69 333 2.0 4.0 0.00 0.00 0.00 49 1013.7
20260510180109 69 52 2.0 4.0 0.00 0.00 0.00 49 1013.6
20260510180056 69 25 2.0 4.0 0.00 0.00 0.00 49 1013.6
20260510180043 69 342 2.0 4.0 0.00 0.00 0.00 50 1013.6
20260510180031 69 350 2.0 4.0 0.00 0.00 0.00 49 1013.7
20260510175505 69 325 1.0 4.0 0.00 0.00 0.00 50 1013.7
20260510175455 68 26 1.0 3.0 0.00 0.00 0.00 50 1013.7
20260510175133 68 124 2.0 3.0 0.00 0.00 0.00 49 1013.3
20260510175034 68 96 2.0 3.0 0.00 0.00 0.00 51 1013.3
20260510174933 68 67 2.0 3.0 0.00 0.00 0.00 50 1013.3
20260510174854 68 257 2.0 3.0 0.00 0.00 0.00 49 1013.3
20260510174843 68 5 1.0 3.0 0.00 0.00 0.00 48 1013.5
20260510174831 68 0 1.0 3.0 0.00 0.00 0.00 49 1013.7
20260510174429 68 342 2.0 3.0 0.00 0.00 0.00 49 1013.8
20260510174332 68 334 2.0 4.0 0.00 0.00 0.00 51 1013.9
20260510174315 67 21 2.0 4.0 0.00 0.00 0.00 52 1014.0
20260510174304 67 279 2.0 4.0 0.00 0.00 0.00 51 1014.1
20260510174000 67 254 1.0 4.0 0.00 0.00 0.00 50 1014.1
20260510173949 67 220 2.0 4.0 0.00 0.00 0.00 50 1014.1
20260510173637 67 218 2.0 4.0 0.00 0.00 0.00 50 1014.1
20260510173604 67 243 2.0 4.0 0.00 0.00 0.00 49 1014.0
20260510173548 67 275 2.0 3.0 0.00 0.00 0.00 51 1014.0
20260510173252 67 287 1.0 3.0 0.00 0.00 0.00 49 1013.9
20260510173237 67 290 1.0 3.0 0.00 0.00 0.00 50 1013.8
20260510173215 67 350 1.0 3.0 0.00 0.00 0.00 50 1013.8
20260510173202 67 90 1.0 3.0 0.00 0.00 0.00 51 1013.7
20260510172618 67 68 1.0 3.0 0.00 0.00 0.00 51 1013.8
20260510172533 67 322 1.0 3.0 0.00 0.00 0.00 51 1013.9
20260510172518 66 35 1.0 3.0 0.00 0.00 0.00 52 1013.8
20260510172508 66 323 1.0 3.0 0.00 0.00 0.00 51 1013.8
20260510172236 66 352 0.0 3.0 0.00 0.00 0.00 52 1013.9
20260510171902 66 352 2.0 4.0 0.00 0.00 0.00 51 1013.8
20260510171802 66 352 2.0 4.0 0.00 0.00 0.00 52 1013.8
20260510171702 66 352 1.0 4.0 0.00 0.00 0.00 51 1013.8
20260510171636 66 58 2.0 4.0 0.00 0.00 0.00 53 1013.8
20260510171502 65 44 2.0 4.0 0.00 0.00 0.00 53 1013.9
20260510171402 65 10 2.0 4.0 0.00 0.00 0.00 53 1013.8
20260510171302 65 319 2.0 4.0 0.00 0.00 0.00 52 1013.9
20260510171205 65 338 2.0 4.0 0.00 0.00 0.00 53 1013.9
20260510171147 65 13 2.0 4.0 0.00 0.00 0.00 53 1013.9
20260510171123 65 0 1.0 4.0 0.00 0.00 0.00 53 1013.9
20260510170801 65 28 1.0 4.0 0.00 0.00 0.00 53 1013.9
20260510170702 65 92 2.0 4.0 0.00 0.00 0.00 53 1013.9
20260510170607 65 15 3.0 4.0 0.00 0.00 0.00 53 1013.9
20260510170503 65 31 3.0 4.0 0.00 0.00 0.00 53 1013.9
20260510170403 65 5 2.0 4.0 0.00 0.00 0.00 53 1013.9
20260510170301 65 5 1.0 4.0 0.00 0.00 0.00 52 1014.0
20260510170242 65 259 2.0 3.0 0.00 0.00 0.00 52 1014.0
20260510170232 65 245 2.0 3.0 0.00 0.00 0.00 51 1014.0
20260510165902 65 19 2.0 3.0 0.00 0.00 0.00 53 1013.9
20260510165801 65 304 2.0 3.0 0.00 0.00 0.00 52 1013.9
20260510165701 65 5 1.0 3.0 0.00 0.00 0.00 52 1013.9
20260510165605 65 343 1.0 3.0 0.00 0.00 0.00 53 1013.9
20260510165503 65 343 1.0 3.0 0.00 0.00 0.00 53 1014.0
20260510165437 65 340 0.0 4.0 0.00 0.00 0.00 53 1014.0
20260510165426 64 334 0.0 4.0 0.00 0.00 0.00 53 1014.0
20260510165413 64 5 1.0 4.0 0.00 0.00 0.00 54 1014.1
20260510165402 64 5 1.0 4.0 0.00 0.00 0.00 53 1014.1
20260510165117 64 349 1.0 4.0 0.00 0.00 0.00 52 1014.1
20260510164849 64 5 2.0 4.0 0.00 0.00 0.00 52 1014.0
20260510164836 64 11 2.0 4.0 0.00 0.00 0.00 53 1014.0
20260510164811 64 5 2.0 4.0 0.00 0.00 0.00 53 1014.0
20260510164201 64 352 2.0 4.0 0.00 0.00 0.00 51 1014.0
20260510164102 64 5 2.0 4.0 0.00 0.00 0.00 53 1014.0
20260510164002 64 307 2.0 4.0 0.00 0.00 0.00 52 1014.1
20260510163902 64 335 2.0 4.0 0.00 0.00 0.00 52 1014.1
20260510163828 64 344 2.0 4.0 0.00 0.00 0.00 52 1014.2
20260510163817 64 306 2.0 4.0 0.00 0.00 0.00 53 1014.1
20260510163805 64 326 1.0 4.0 0.00 0.00 0.00 54 1014.1
20260510163520 64 5 2.0 4.0 0.00 0.00 0.00 53 1014.0
20260510163200 64 18 2.0 4.0 0.00 0.00 0.00 54 1013.9
20260510163104 64 42 2.0 4.0 0.00 0.00 0.00 54 1013.9
20260510163033 64 69 1.0 4.0 0.00 0.00 0.00 55 1013.9
20260510163022 64 291 1.0 4.0 0.00 0.00 0.00 55 1013.9
20260510162702 64 288 2.0 4.0 0.00 0.00 0.00 54 1014.0
20260510162606 64 0 2.0 4.0 0.00 0.00 0.00 54 1014.0
20260510162502 64 0 2.0 4.0 0.00 0.00 0.00 55 1014.0
20260510162436 64 5 2.0 4.0 0.00 0.00 0.00 54 1014.0
20260510162425 64 0 1.0 4.0 0.00 0.00 0.00 55 1013.9
20260510162103 64 313 1.0 4.0 0.00 0.00 0.00 55 1013.9
20260510162001 64 313 2.0 4.0 0.00 0.00 0.00 55 1013.9
20260510161902 64 320 3.0 4.0 0.00 0.00 0.00 55 1013.9
20260510161801 64 351 2.0 4.0 0.00 0.00 0.00 56 1014.0
20260510161702 64 5 2.0 4.0 0.00 0.00 0.00 56 1014.0
20260510161645 63 275 2.0 3.0 0.00 0.00 0.00 55 1014.1
20260510161622 63 24 2.0 4.0 0.00 0.00 0.00 56 1014.1
20260510161303 63 315 0.0 6.0 0.00 0.00 0.00 57 1014.2
20260510161245 63 14 1.0 6.0 0.00 0.00 0.00 57 1014.3
20260510161232 63 16 1.0 6.0 0.00 0.00 0.00 56 1014.3
20260510160902 63 346 1.0 6.0 0.00 0.00 0.00 56 1014.3
20260510160802 63 317 2.0 6.0 0.00 0.00 0.00 56 1014.3
20260510160703 63 259 4.0 6.0 0.00 0.00 0.00 55 1014.2
20260510160603 63 265 2.0 6.0 0.00 0.00 0.00 55 1014.2
20260510160502 63 255 1.0 6.0 0.00 0.00 0.00 57 1014.2
20260510160401 63 279 1.0 4.0 0.00 0.00 0.00 57 1014.1
20260510160304 62 279 1.0 4.0 0.00 0.00 0.00 58 1014.2
20260510160202 62 248 1.0 4.0 0.00 0.00 0.00 58 1014.1
20260510160147 62 292 0.0 4.0 0.00 0.00 0.00 59 1014.1
20260510160124 62 295 1.0 4.0 0.00 0.00 0.00 58 1014.2
20260510155805 62 0 2.0 4.0 0.00 0.00 0.00 58 1014.2
20260510155702 62 348 2.0 4.0 0.00 0.00 0.00 58 1014.3
20260510155636 62 348 2.0 4.0 0.00 0.00 0.00 59 1014.3
20260510155605 62 289 2.0 4.0 0.00 0.00 0.00 58 1014.3
20260510155554 62 339 3.0 4.0 0.00 0.00 0.00 58 1014.3
20260510155541 62 348 3.0 4.0 0.00 0.00 0.00 58 1014.3
20260510155003 62 306 2.0 4.0 0.00 0.00 0.00 59 1014.2
20260510154902 62 327 2.0 4.0 0.00 0.00 0.00 59 1014.2
20260510154801 62 13 1.0 4.0 0.00 0.00 0.00 59 1014.2
20260510154702 62 331 1.0 3.0 0.00 0.00 0.00 59 1014.2
20260510154602 61 352 2.0 3.0 0.00 0.00 0.00 58 1014.2
20260510154501 61 352 2.0 3.0 0.00 0.00 0.00 60 1014.2
20260510154400 61 348 1.0 3.0 0.00 0.00 0.00 60 1014.1
20260510154300 61 288 1.0 3.0 0.00 0.00 0.00 59 1014.1
20260510154200 61 291 2.0 3.0 0.00 0.00 0.00 58 1014.1
20260510154058 61 11 2.0 3.0 0.00 0.00 0.00 59 1014.0
20260510153958 61 15 1.0 4.0 0.00 0.00 0.00 59 1014.0
20260510153857 61 338 1.0 4.0 0.00 0.00 0.00 60 1014.1
20260510153757 61 352 1.0 4.0 0.00 0.00 0.00 60 1014.1
20260510153655 61 309 1.0 4.0 0.00 0.00 0.00 60 1014.1
20260510153556 61 331 2.0 4.0 0.00 0.00 0.00 59 1014.1
20260510153455 61 348 2.0 4.0 0.00 0.00 0.00 59 1014.2
20260510153350 61 322 1.0 4.0 0.00 0.00 0.00 59 1014.2
20260510153250 61 299 1.0 4.0 0.00 0.00 0.00 60 1014.2
20260510153150 60 302 2.0 4.0 0.00 0.00 0.00 60 1014.2
20260510153049 60 327 2.0 4.0 0.00 0.00 0.00 60 1014.3
20260510152945 60 324 2.0 3.0 0.00 0.00 0.00 60 1014.3
20260510152845 60 293 1.0 3.0 0.00 0.00 0.00 59 1014.4
20260510152745 60 264 1.0 3.0 0.00 0.00 0.00 59 1014.3
20260510152644 60 263 1.0 3.0 0.00 0.00 0.00 60 1014.3
20260510152543 60 330 2.0 3.0 0.00 0.00 0.00 60 1014.2
20260510152445 60 348 2.0 3.0 0.00 0.00 0.00 60 1014.1
20260510152342 60 339 2.0 3.0 0.00 0.00 0.00 60 1014.1
20260510152241 60 11 1.0 3.0 0.00 0.00 0.00 61 1014.1
20260510152141 60 11 1.0 3.0 0.00 0.00 0.00 61 1014.0
20260510152041 60 90 1.0 3.0 0.00 0.00 0.00 60 1014.0
20260510151940 60 105 1.0 3.0 0.00 0.00 0.00 61 1014.0
20260510151839 59 65 0.0 3.0 0.00 0.00 0.00 61 1014.0
20260510151732 59 85 1.0 3.0 0.00 0.00 0.00 61 1013.9
20260510151632 59 71 2.0 3.0 0.00 0.00 0.00 61 1014.1
20260510151529 59 37 1.0 3.0 0.00 0.00 0.00 62 1014.0
20260510151430 59 28 1.0 3.0 0.00 0.00 0.00 62 1014.0
20260510151345 59 34 1.0 3.0 0.00 0.00 0.00 62 1014.0
20260510151328 59 68 1.0 3.0 0.00 0.00 0.00 62 1014.1
20260510151319 58 67 1.0 3.0 0.00 0.00 0.00 62 1014.1
20260510150929 58 24 2.0 3.0 0.00 0.00 0.00 62 1014.1
20260510150830 58 352 2.0 3.0 0.00 0.00 0.00 62 1014.1
20260510150730 58 20 1.0 2.0 0.00 0.00 0.00 63 1014.2
20260510150629 58 347 0.0 2.0 0.00 0.00 0.00 63 1014.2
20260510150613 58 307 0.0 3.0 0.00 0.00 0.00 64 1014.2
20260510150550 58 336 0.0 3.0 0.00 0.00 0.00 64 1014.2
20260510150228 57 302 0.0 3.0 0.00 0.00 0.00 64 1014.3
20260510150128 57 302 0.0 3.0 0.00 0.00 0.00 64 1014.3
20260510150029 57 313 1.0 3.0 0.00 0.00 0.00 64 1014.3
20260510145929 57 325 2.0 3.0 0.00 0.00 0.00 64 1014.4
20260510145829 57 333 2.0 3.0 0.00 0.00 0.00 64 1014.4
20260510145730 57 19 2.0 3.0 0.00 0.00 0.00 64 1014.4
20260510145607 57 15 2.0 3.0 0.00 0.00 0.00 64 1014.4
20260510145516 57 5 1.0 3.0 0.00 0.00 0.00 65 1014.5
20260510145406 57 329 0.0 3.0 0.00 0.00 0.00 65 1014.5
20260510145354 57 294 0.0 3.0 0.00 0.00 0.00 65 1014.4
20260510145341 57 294 0.0 3.0 0.00 0.00 0.00 65 1014.4
20260510145332 56 336 1.0 3.0 0.00 0.00 0.00 66 1014.4
20260510145321 56 336 1.0 3.0 0.00 0.00 0.00 65 1014.4
20260510145258 56 298 2.0 3.0 0.00 0.00 0.00 65 1014.5
20260510145244 56 346 2.0 3.0 0.00 0.00 0.00 65 1014.5
20260510144753 56 341 2.0 4.0 0.00 0.00 0.00 65 1014.4
20260510144208 56 298 1.0 4.0 0.00 0.00 0.00 66 1014.4
20260510144102 56 284 1.0 4.0 0.00 0.00 0.00 65 1014.4
20260510144012 56 278 1.0 4.0 0.00 0.00 0.00 66 1014.4
20260510143856 56 282 2.0 4.0 0.00 0.00 0.00 66 1014.4
20260510143750 56 277 2.0 4.0 0.00 0.00 0.00 66 1014.4
20260510143645 56 265 2.0 4.0 0.00 0.00 0.00 65 1014.4
20260510143547 56 248 2.0 4.0 0.00 0.00 0.00 66 1014.4
20260510143444 56 271 3.0 4.0 0.00 0.00 0.00 65 1014.4
20260510143348 56 263 1.0 4.0 0.00 0.00 0.00 66 1014.3
20260510143243 56 285 1.0 3.0 0.00 0.00 0.00 66 1014.3
20260510143219 56 264 1.0 3.0 0.00 0.00 0.00 67 1014.3
20260510143207 56 294 2.0 3.0 0.00 0.00 0.00 67 1014.3
20260510142834 56 268 2.0 3.0 0.00 0.00 0.00 67 1014.3
20260510142735 56 273 2.0 3.0 0.00 0.00 0.00 67 1014.3
20260510142636 56 287 2.0 4.0 0.00 0.00 0.00 67 1014.4
20260510142529 55 288 2.0 4.0 0.00 0.00 0.00 67 1014.3
20260510142429 55 309 1.0 4.0 0.00 0.00 0.00 68 1014.4
20260510142330 55 313 0.0 4.0 0.00 0.00 0.00 68 1014.3
20260510142231 55 274 0.0 4.0 0.00 0.00 0.00 68 1014.3
20260510142129 55 299 1.0 4.0 0.00 0.00 0.00 68 1014.3
20260510142030 55 292 1.0 4.0 0.00 0.00 0.00 67 1014.3
20260510142002 55 257 1.0 4.0 0.00 0.00 0.00 68 1014.4
20260510141947 55 288 2.0 4.0 0.00 0.00 0.00 68 1014.3
20260510141936 55 300 1.0 4.0 0.00 0.00 0.00 68 1014.3
20260510141705 55 291 2.0 4.0 0.00 0.00 0.00 67 1014.2
20260510141326 55 288 2.0 4.0 0.00 0.00 0.00 68 1014.3
20260510141220 55 304 1.0 4.0 0.00 0.00 0.00 68 1014.3
20260510141120 55 281 1.0 4.0 0.00 0.00 0.00 68 1014.3
20260510141013 55 282 2.0 4.0 0.00 0.00 0.00 68 1014.3
20260510140913 55 283 2.0 4.0 0.00 0.00 0.00 68 1014.4
20260510140812 55 292 2.0 4.0 0.00 0.00 0.00 68 1014.3
20260510140714 55 260 1.0 4.0 0.00 0.00 0.00 67 1014.3
20260510140611 55 281 2.0 4.0 0.00 0.00 0.00 68 1014.2
20260510140550 55 278 2.0 4.0 0.00 0.00 0.00 68 1014.2
20260510140527 54 315 2.0 4.0 0.00 0.00 0.00 68 1014.2
20260510140207 54 260 2.0 4.0 0.00 0.00 0.00 68 1014.2
20260510140148 54 284 1.0 4.0 0.00 0.00 0.00 69 1014.2
20260510140133 54 298 1.0 4.0 0.00 0.00 0.00 69 1014.2
20260510135802 54 287 1.0 4.0 0.00 0.00 0.00 69 1014.2
20260510135703 54 352 2.0 4.0 0.00 0.00 0.00 70 1014.2
20260510135647 54 261 2.0 4.0 0.00 0.00 0.00 69 1014.2
20260510135636 53 259 1.0 4.0 0.00 0.00 0.00 70 1014.1
20260510135612 53 292 1.0 3.0 0.00 0.00 0.00 70 1014.1
20260510135559 53 306 1.0 3.0 0.00 0.00 0.00 71 1014.0
20260510135548 53 313 1.0 3.0 0.00 0.00 0.00 71 1014.0
20260510135537 53 311 0.0 3.0 0.00 0.00 0.00 71 1013.9
20260510135258 53 220 0.0 0.0 0.00 0.00 0.00 72 1013.9
20260510134502 52 220 0.0 0.0 0.00 0.00 0.00 73 1013.9
20260510134405 52 220 0.0 0.0 0.00 0.00 0.00 74 1013.8
20260510134302 52 220 0.0 0.0 0.00 0.00 0.00 74 1013.8
20260510134203 51 220 0.0 0.0 0.00 0.00 0.00 74 1013.8
20260510134123 51 220 0.0 0.0 0.00 0.00 0.00 74 1013.8
20260510134001 51 220 0.0 0.0 0.00 0.00 0.00 75 1013.8
20260510133902 51 220 0.0 0.0 0.00 0.00 0.00 75 1013.8
20260510133804 51 220 0.0 0.0 0.00 0.00 0.00 76 1013.8
20260510133700 51 220 0.0 0.0 0.00 0.00 0.00 75 1013.8
20260510133604 51 220 0.0 0.0 0.00 0.00 0.00 75 1013.8
20260510133542 51 220 0.0 0.0 0.00 0.00 0.00 76 1013.8
20260510133517 51 220 0.0 0.0 0.00 0.00 0.00 76 1013.8
20260510133231 50 220 0.0 0.0 0.00 0.00 0.00 76 1013.8
20260510133221 50 220 0.0 0.0 0.00 0.00 0.00 76 1013.8
20260510132928 50 220 0.0 0.0 0.00 0.00 0.00 77 1013.8
20260510132920 50 220 0.0 0.0 0.00 0.00 0.00 77 1013.8
20260510132623 50 220 0.0 0.0 0.00 0.00 0.00 77 1013.8
20260510132611 50 220 0.0 0.0 0.00 0.00 0.00 77 1013.8
20260510132550 50 220 0.0 0.0 0.00 0.00 0.00 77 1013.8
20260510132538 50 220 0.0 0.0 0.00 0.00 0.00 77 1013.8
20260510132001 50 220 0.0 0.0 0.00 0.00 0.00 77 1013.8
20260510131930 50 220 0.0 0.0 0.00 0.00 0.00 77 1013.8
20260510131917 50 220 0.0 0.0 0.00 0.00 0.00 77 1013.8
20260510131557 50 220 0.0 0.0 0.00 0.00 0.00 78 1013.8
20260510131446 50 220 0.0 0.0 0.00 0.00 0.00 78 1013.8
20260510131337 50 220 0.0 0.0 0.00 0.00 0.00 78 1013.8
20260510131233 50 220 0.0 0.0 0.00 0.00 0.00 78 1013.8
20260510131152 50 220 0.0 0.0 0.00 0.00 0.00 78 1013.7
20260510131142 50 220 0.0 0.0 0.00 0.00 0.00 78 1013.7
20260510131131 50 220 0.0 0.0 0.00 0.00 0.00 78 1013.7
20260510130758 50 220 0.0 0.0 0.00 0.00 0.00 78 1013.7
20260510130748 50 220 0.0 0.0 0.00 0.00 0.00 78 1013.7
20260510130433 50 220 0.0 0.0 0.00 0.00 0.00 77 1013.6
20260510130332 50 220 0.0 0.0 0.00 0.00 0.00 77 1013.6
20260510130231 50 220 0.0 0.0 0.00 0.00 0.00 77 1013.6
20260510130132 50 220 0.0 0.0 0.00 0.00 0.00 77 1013.5
20260510130031 50 220 0.0 0.0 0.00 0.00 0.00 77 1013.5
20260510125931 50 220 0.0 0.0 0.00 0.00 0.00 77 1013.5
20260510125833 50 220 0.0 0.0 0.00 0.00 0.00 77 1013.4
20260510125730 50 220 0.0 0.0 0.00 0.00 0.00 77 1013.5
20260510125631 50 220 0.0 0.0 0.00 0.00 0.00 76 1013.4
20260510125530 50 220 0.0 0.0 0.00 0.00 0.00 76 1013.5
20260510125431 50 220 0.0 0.0 0.00 0.00 0.00 76 1013.5
20260510125328 50 220 0.0 0.0 0.00 0.00 0.00 76 1013.5
20260510125232 50 220 0.0 0.0 0.00 0.00 0.00 76 1013.6
20260510125219 50 220 0.0 0.0 0.00 0.00 0.00 76 1013.6
20260510125210 50 220 0.0 0.0 0.00 0.00 0.00 76 1013.6
20260510124931 50 220 0.0 0.0 0.00 0.00 0.00 75 1013.6
20260510124922 50 220 0.0 0.0 0.00 0.00 0.00 75 1013.6
20260510124912 50 220 0.0 0.0 0.00 0.00 0.00 75 1013.6
20260510124900 50 220 0.0 0.0 0.00 0.00 0.00 75 1013.6
20260510124839 50 220 0.0 0.0 0.00 0.00 0.00 74 1013.6
20260510124354 50 220 0.0 0.0 0.00 0.00 0.00 74 1013.6
20260510124116 50 220 0.0 0.0 0.00 0.00 0.00 73 1013.7
20260510124107 50 220 0.0 0.0 0.00 0.00 0.00 73 1013.6
20260510123502 51 220 0.0 0.0 0.00 0.00 0.00 73 1013.6
20260510123403 51 220 0.0 0.0 0.00 0.00 0.00 72 1013.6
20260510123305 51 220 0.0 0.0 0.00 0.00 0.00 72 1013.6
20260510123204 51 220 0.0 0.0 0.00 0.00 0.00 72 1013.6
20260510123101 51 220 0.0 0.0 0.00 0.00 0.00 72 1013.6
20260510123043 51 220 0.0 0.0 0.00 0.00 0.00 72 1013.6
20260510123022 51 220 0.0 0.0 0.00 0.00 0.00 72 1013.6
20260510122701 51 220 0.0 0.0 0.00 0.00 0.00 72 1013.6
20260510122603 51 220 0.0 0.0 0.00 0.00 0.00 71 1013.6
20260510122502 51 220 0.0 0.0 0.00 0.00 0.00 71 1013.6
20260510122407 51 220 0.0 0.0 0.00 0.00 0.00 71 1013.6
20260510122329 51 220 0.0 0.0 0.00 0.00 0.00 70 1013.6
20260510122321 51 220 0.0 0.0 0.00 0.00 0.00 70 1013.5
20260510122003 51 220 0.0 0.0 0.00 0.00 0.00 70 1013.6
20260510121942 51 220 0.0 0.0 0.00 0.00 0.00 70 1013.6
20260510121923 51 220 0.0 0.0 0.00 0.00 0.00 70 1013.6
20260510121605 51 220 0.0 0.0 0.00 0.00 0.00 71 1013.6
20260510121500 51 220 0.0 0.0 0.00 0.00 0.00 70 1013.6
20260510121413 51 220 0.0 0.0 0.00 0.00 0.00 70 1013.5
20260510121301 51 220 0.0 0.0 0.00 0.00 0.00 70 1013.5
20260510121207 51 220 0.0 0.0 0.00 0.00 0.00 70 1013.5
20260510121103 51 220 0.0 0.0 0.00 0.00 0.00 70 1013.6
20260510121046 51 220 0.0 0.0 0.00 0.00 0.00 70 1013.6
20260510121033 51 220 0.0 0.0 0.00 0.00 0.00 70 1013.6
20260510120702 51 220 0.0 0.0 0.00 0.00 0.00 70 1013.6
20260510120605 51 220 0.0 0.0 0.00 0.00 0.00 70 1013.6
20260510120501 51 220 0.0 0.0 0.00 0.00 0.00 70 1013.6
20260510120408 51 220 0.0 0.0 0.00 0.00 0.00 70 1013.6
20260510120303 51 220 0.0 0.0 0.00 0.00 0.00 70 1013.6
20260510120229 51 220 0.0 0.0 0.00 0.00 0.00 70 1013.6
20260510120222 51 220 0.0 0.0 0.00 0.00 0.00 70 1013.7
20260510115908 51 220 0.0 0.0 0.00 0.00 0.00 70 1013.7
20260510115802 51 220 0.0 0.0 0.00 0.00 0.00 71 1013.7
20260510115700 51 220 0.0 0.0 0.00 0.00 0.00 71 1013.7
20260510115603 51 220 0.0 0.0 0.00 0.00 0.00 71 1013.7
20260510115505 51 220 0.0 0.0 0.00 0.00 0.00 71 1013.7
20260510115441 51 220 0.0 0.0 0.00 0.00 0.00 71 1013.7
20260510115420 51 220 0.0 0.0 0.00 0.00 0.00 72 1013.7
20260510115134 51 220 0.0 0.0 0.00 0.00 0.00 72 1013.7
20260510115121 50 220 0.0 0.0 0.00 0.00 0.00 73 1013.7
20260510114801 50 220 0.0 0.0 0.00 0.00 0.00 74 1013.7
20260510114701 50 220 0.0 0.0 0.00 0.00 0.00 74 1013.7
20260510114607 50 220 0.0 0.0 0.00 0.00 0.00 74 1013.7
20260510114501 50 220 0.0 0.0 0.00 0.00 0.00 74 1013.7
20260510114404 50 220 0.0 0.0 0.00 0.00 0.00 74 1013.7
20260510114301 50 220 0.0 0.0 0.00 0.00 0.00 74 1013.7
20260510114201 50 220 0.0 0.0 0.00 0.00 0.00 74 1013.7
20260510114101 50 220 0.0 0.0 0.00 0.00 0.00 74 1013.7
20260510114041 50 220 0.0 0.0 0.00 0.00 0.00 75 1013.7
20260510114031 50 220 0.0 0.0 0.00 0.00 0.00 75 1013.7
20260510113700 50 220 0.0 0.0 0.00 0.00 0.00 75 1013.7
20260510113600 50 220 0.0 0.0 0.00 0.00 0.00 75 1013.7
20260510113459 50 220 0.0 0.0 0.00 0.00 0.00 74 1013.7
20260510113357 50 220 0.0 0.0 0.00 0.00 0.00 74 1013.7
20260510113236 50 220 0.0 0.0 0.00 0.00 0.00 74 1013.7
20260510113131 50 220 0.0 0.0 0.00 0.00 0.00 75 1013.6
20260510113031 50 220 0.0 0.0 0.00 0.00 0.00 75 1013.7
20260510112933 50 220 0.0 0.0 0.00 0.00 0.00 74 1013.7
20260510112830 50 220 0.0 0.0 0.00 0.00 0.00 74 1013.7
20260510112805 50 220 0.0 0.0 0.00 0.00 0.00 74 1013.7
20260510112754 50 220 0.0 0.0 0.00 0.00 0.00 74 1013.7
20260510112511 50 220 0.0 0.0 0.00 0.00 0.00 74 1013.7
20260510112450 50 220 0.0 0.0 0.00 0.00 0.00 74 1013.8
20260510112130 51 220 0.0 0.0 0.00 0.00 0.00 73 1013.8
20260510112030 51 220 0.0 0.0 0.00 0.00 0.00 73 1013.7
20260510111931 51 220 0.0 0.0 0.00 0.00 0.00 73 1013.8
20260510111830 51 220 0.0 0.0 0.00 0.00 0.00 73 1013.7
20260510111730 51 220 0.0 0.0 0.00 0.00 0.00 73 1013.8
20260510111701 51 220 0.0 0.0 0.00 0.00 0.00 73 1013.7
20260510111651 51 220 0.0 0.0 0.00 0.00 0.00 72 1013.8
20260510111331 51 220 0.0 0.0 0.00 0.00 0.00 72 1013.7
20260510111229 51 220 0.0 0.0 0.00 0.00 0.00 72 1013.7
20260510111131 51 220 0.0 0.0 0.00 0.00 0.00 72 1013.8
20260510111029 51 220 0.0 0.0 0.00 0.00 0.00 72 1013.8
20260510110949 51 220 0.0 0.0 0.00 0.00 0.00 72 1013.8
20260510110924 51 220 0.0 0.0 0.00 0.00 0.00 72 1013.8
20260510110634 51 220 0.0 0.0 0.00 0.00 0.00 72 1013.8
20260510110506 51 220 0.0 0.0 0.00 0.00 0.00 72 1013.8
20260510110405 51 220 0.0 0.0 0.00 0.00 0.00 72 1013.8
20260510110321 51 220 0.0 0.0 0.00 0.00 0.00 72 1013.9
20260510110311 51 220 0.0 0.0 0.00 0.00 0.00 72 1013.9
20260510110300 51 220 0.0 0.0 0.00 0.00 0.00 72 1013.9
20260510110251 51 220 0.0 0.0 0.00 0.00 0.00 72 1013.9
20260510105701 51 220 0.0 0.0 0.00 0.00 0.00 72 1013.9
20260510105605 51 220 0.0 0.0 0.00 0.00 0.00 72 1013.9
20260510105501 51 220 0.0 0.0 0.00 0.00 0.00 71 1013.9
20260510105402 51 220 0.0 0.0 0.00 0.00 0.00 71 1013.9
20260510105323 51 220 0.0 0.0 0.00 0.00 0.00 71 1013.9
20260510105313 51 220 0.0 0.0 0.00 0.00 0.00 71 1013.9
20260510105306 51 220 0.0 0.0 0.00 0.00 0.00 70 1013.9
20260510105032 51 220 0.0 0.0 0.00 0.00 0.00 71 1013.9
20260510104703 51 220 0.0 0.0 0.00 0.00 0.00 71 1013.9
20260510104604 51 220 0.0 0.0 0.00 0.00 0.00 71 1013.9
20260510104501 52 220 0.0 0.0 0.00 0.00 0.00 71 1013.8
20260510104442 51 220 0.0 0.0 0.00 0.00 0.00 71 1013.9
20260510104417 52 220 0.0 0.0 0.00 0.00 0.00 70 1013.9
20260510104407 52 220 0.0 0.0 0.00 0.00 0.00 70 1013.9
20260510104356 52 220 0.0 0.0 0.00 0.00 0.00 70 1013.9
20260510104125 52 220 0.0 0.0 0.00 0.00 0.00 70 1013.9
20260510104105 52 220 0.0 0.0 0.00 0.00 0.00 70 1013.9
20260510103619 52 220 0.0 0.0 0.00 0.00 0.00 70 1013.9
20260510103257 52 220 0.0 0.0 0.00 0.00 0.00 70 1014.0
20260510103249 52 220 0.0 0.0 0.00 0.00 0.00 70 1014.0
20260510102931 52 220 0.0 0.0 0.00 0.00 0.00 70 1013.9
20260510102835 52 220 0.0 0.0 0.00 0.00 0.00 69 1014.0
20260510102730 52 220 0.0 0.0 0.00 0.00 0.00 69 1014.0
20260510102629 52 220 0.0 0.0 0.00 0.00 0.00 69 1014.0
20260510102554 52 220 0.0 0.0 0.00 0.00 0.00 69 1014.0
20260510102542 52 220 0.0 0.0 0.00 0.00 0.00 69 1014.0
20260510102533 52 220 0.0 0.0 0.00 0.00 0.00 69 1014.0
20260510102251 52 220 0.0 0.0 0.00 0.00 0.00 69 1014.0
20260510101930 52 220 0.0 0.0 0.00 0.00 0.00 69 1014.0
20260510101834 52 220 0.0 0.0 0.00 0.00 0.00 69 1014.0
20260510101729 52 220 0.0 0.0 0.00 0.00 0.00 69 1014.0
20260510101628 52 220 0.0 0.0 0.00 0.00 0.00 69 1014.0
20260510101531 52 220 0.0 0.0 0.00 0.00 0.00 69 1014.0
20260510101422 52 220 0.0 0.0 0.00 0.00 0.00 69 1014.0
20260510101303 52 220 0.0 0.0 0.00 0.00 0.00 69 1013.9
20260510101201 52 220 0.0 0.0 0.00 0.00 0.00 69 1014.0
20260510101106 52 220 0.0 0.0 0.00 0.00 0.00 69 1013.9
20260510101042 52 220 0.0 0.0 0.00 0.00 0.00 69 1013.9
20260510101032 52 220 0.0 0.0 0.00 0.00 0.00 69 1014.0
20260510100706 52 220 0.0 0.0 0.00 0.00 0.00 69 1013.9
20260510100603 52 220 0.0 0.0 0.00 0.00 0.00 69 1013.9
20260510100503 52 220 0.0 0.0 0.00 0.00 0.00 69 1013.9
20260510100424 52 220 0.0 0.0 0.00 0.00 0.00 69 1013.9
20260510100400 52 220 0.0 0.0 0.00 0.00 0.00 69 1013.9
20260510100350 52 220 0.0 0.0 0.00 0.00 0.00 68 1013.9
20260510100003 52 220 0.0 0.0 0.00 0.00 0.00 68 1013.8
20260510095906 52 220 0.0 0.0 0.00 0.00 0.00 68 1013.9
20260510095801 53 220 0.0 0.0 0.00 0.00 0.00 68 1013.9
20260510095729 53 220 0.0 0.0 0.00 0.00 0.00 68 1013.9
20260510095715 53 220 0.0 0.0 0.00 0.00 0.00 69 1013.9
20260510095358 53 220 0.0 0.0 0.00 0.00 0.00 68 1014.0
20260510095333 53 220 0.0 0.0 0.00 0.00 0.00 69 1013.9
20260510095322 53 220 0.0 0.0 0.00 0.00 0.00 68 1013.9
20260510095310 53 220 0.0 0.0 0.00 0.00 0.00 68 1013.9
20260510094732 53 220 0.0 0.0 0.00 0.00 0.00 68 1013.9
20260510094630 53 220 0.0 0.0 0.00 0.00 0.00 68 1014.0
20260510094530 53 220 0.0 0.0 0.00 0.00 0.00 68 1014.0
20260510094433 53 220 0.0 0.0 0.00 0.00 0.00 68 1013.9
20260510094329 53 220 0.0 0.0 0.00 0.00 0.00 68 1013.9
20260510094231 53 220 0.0 0.0 0.00 0.00 0.00 68 1014.0
20260510094129 53 220 0.0 0.0 0.00 0.00 0.00 68 1013.9
20260510094030 53 220 0.0 0.0 0.00 0.00 0.00 68 1013.9
20260510093929 53 220 0.0 0.0 0.00 0.00 0.00 68 1013.9
20260510093833 53 220 0.0 0.0 0.00 0.00 0.00 68 1013.9
20260510093800 53 220 0.0 0.0 0.00 0.00 0.00 68 1014.0
20260510093750 53 220 0.0 0.0 0.00 0.00 0.00 68 1014.0
20260510093430 53 220 0.0 0.0 0.00 0.00 0.00 67 1014.0
20260510093349 53 220 0.0 0.0 0.00 0.00 0.00 67 1014.0
20260510093325 53 220 0.0 0.0 0.00 0.00 0.00 67 1014.0
20260510093316 53 220 0.0 0.0 0.00 0.00 0.00 68 1014.0
20260510092945 53 220 0.0 0.0 0.00 0.00 0.00 68 1014.0
20260510092936 53 220 0.0 0.0 0.00 0.00 0.00 68 1014.0
20260510092609 53 220 0.0 0.0 0.00 0.00 0.00 68 1014.1
20260510092536 53 220 0.0 0.0 0.00 0.00 0.00 68 1014.1
20260510092526 53 220 0.0 0.0 0.00 0.00 0.00 68 1014.1
20260510092203 53 220 0.0 0.0 0.00 0.00 0.00 68 1014.1
20260510092123 53 220 0.0 0.0 0.00 0.00 0.00 68 1014.1
20260510092111 53 220 0.0 0.0 0.00 0.00 0.00 68 1014.2
20260510092103 53 220 0.0 0.0 0.00 0.00 0.00 68 1014.1
20260510092051 53 220 0.0 0.0 0.00 0.00 0.00 67 1014.1
20260510091501 53 220 0.0 0.0 0.00 0.00 0.00 67 1014.1
20260510091401 53 220 0.0 0.0 0.00 0.00 0.00 67 1014.1
20260510091301 53 220 0.0 0.0 0.00 0.00 0.00 68 1014.1
20260510091233 53 220 0.0 0.0 0.00 0.00 0.00 67 1014.1
20260510091222 53 220 0.0 0.0 0.00 0.00 0.00 67 1014.1
20260510090941 53 220 0.0 0.0 0.00 0.00 0.00 67 1014.2
20260510090931 53 220 0.0 0.0 0.00 0.00 0.00 67 1014.1
20260510090628 53 220 0.0 0.0 0.00 0.00 0.00 67 1014.2
20260510090619 53 220 0.0 0.0 0.00 0.00 0.00 67 1014.2
20260510090301 53 220 0.0 0.0 0.00 0.00 0.00 67 1014.3
20260510090159 53 220 0.0 0.0 0.00 0.00 0.00 67 1014.3
20260510090053 53 220 0.0 0.0 0.00 0.00 0.00 67 1014.3
20260510085955 53 220 0.0 0.0 0.00 0.00 0.00 67 1014.3
20260510085940 53 220 0.0 0.0 0.00 0.00 0.00 67 1014.3
20260510085920 53 220 0.0 0.0 0.00 0.00 0.00 67 1014.3
20260510085648 53 220 0.0 0.0 0.00 0.00 0.00 67 1014.3
20260510085330 53 220 0.0 0.0 0.00 0.00 0.00 67 1014.3
20260510085229 53 220 0.0 0.0 0.00 0.00 0.00 67 1014.3
20260510085158 53 220 0.0 0.0 0.00 0.00 0.00 67 1014.3
20260510085150 53 220 0.0 0.0 0.00 0.00 0.00 67 1014.3
20260510084830 53 220 0.0 0.0 0.00 0.00 0.00 67 1014.3
20260510084732 53 220 0.0 0.0 0.00 0.00 0.00 67 1014.2
20260510084630 53 220 0.0 0.0 0.00 0.00 0.00 67 1014.2
20260510084531 53 220 0.0 0.0 0.00 0.00 0.00 67 1014.2
20260510084509 53 220 0.0 0.0 0.00 0.00 0.00 67 1014.2
20260510084500 53 220 0.0 0.0 0.00 0.00 0.00 67 1014.2
20260510084131 53 220 0.0 0.0 0.00 0.00 0.00 67 1014.2
20260510084029 53 220 0.0 0.0 0.00 0.00 0.00 67 1014.3
20260510083928 53 220 0.0 0.0 0.00 0.00 0.00 67 1014.2
20260510083828 53 220 0.0 1.0 0.00 0.00 0.00 67 1014.2
20260510083721 53 220 0.0 1.0 0.00 0.00 0.00 67 1014.3
20260510083703 53 220 0.0 1.0 0.00 0.00 0.00 67 1014.2
20260510083651 53 220 0.0 1.0 0.00 0.00 0.00 67 1014.3
20260510083418 53 220 0.0 1.0 0.00 0.00 0.00 67 1014.3
20260510083357 53 220 0.0 1.0 0.00 0.00 0.00 68 1014.3
20260510083126 53 220 0.0 1.0 0.00 0.00 0.00 68 1014.4
20260510083115 53 221 0.0 1.0 0.00 0.00 0.00 68 1014.3
20260510082759 53 223 0.0 1.0 0.00 0.00 0.00 68 1014.4
20260510082749 53 229 0.0 1.0 0.00 0.00 0.00 68 1014.4
20260510082737 53 232 0.0 1.0 0.00 0.00 0.00 68 1014.4
20260510082202 53 245 0.0 0.0 0.00 0.00 0.00 67 1014.4
20260510082101 53 245 0.0 1.0 0.00 0.00 0.00 67 1014.5
20260510082031 53 245 0.0 1.0 0.00 0.00 0.00 67 1014.4
20260510082021 53 245 0.0 1.0 0.00 0.00 0.00 67 1014.5
20260510081701 54 245 0.0 1.0 0.00 0.00 0.00 66 1014.5
20260510081615 54 245 0.0 1.0 0.00 0.00 0.00 67 1014.5
20260510081603 54 245 0.0 1.0 0.00 0.00 0.00 67 1014.5
20260510081551 54 245 0.0 1.0 0.00 0.00 0.00 67 1014.5
20260510081540 54 245 0.0 1.0 0.00 0.00 0.00 67 1014.5
20260510081258 54 249 0.0 1.0 0.00 0.00 0.00 67 1014.5
20260510081029 54 28 0.0 0.0 0.00 0.00 0.00 67 1014.5
20260510080749 54 28 0.0 0.0 0.00 0.00 0.00 66 1014.5
20260510080429 54 28 0.0 0.0 0.00 0.00 0.00 66 1014.5
20260510080331 54 28 0.0 0.0 0.00 0.00 0.00 66 1014.5
20260510080229 54 28 0.0 0.0 0.00 0.00 0.00 66 1014.5
20260510080133 54 28 0.0 0.0 0.00 0.00 0.00 67 1014.5
20260510080030 54 28 0.0 0.0 0.00 0.00 0.00 67 1014.5
20260510075935 54 28 0.0 0.0 0.00 0.00 0.00 66 1014.5
20260510075830 54 28 0.0 0.0 0.00 0.00 0.00 66 1014.5
20260510075733 54 28 0.0 0.0 0.00 0.00 0.00 66 1014.5
20260510075701 54 28 0.0 0.0 0.00 0.00 0.00 66 1014.5
20260510075648 54 28 0.0 0.0 0.00 0.00 0.00 66 1014.5
20260510075411 54 28 0.0 0.0 0.00 0.00 0.00 66 1014.5
20260510075401 54 28 0.0 0.0 0.00 0.00 0.00 66 1014.5
20260510075056 54 28 0.0 0.0 0.00 0.00 0.00 66 1014.5
20260510075046 54 28 0.0 0.0 0.00 0.00 0.00 66 1014.5
20260510074721 54 28 0.0 0.0 0.00 0.00 0.00 66 1014.5
20260510074619 54 28 0.0 0.0 0.00 0.00 0.00 66 1014.5
20260510074520 54 28 0.0 0.0 0.00 0.00 0.00 66 1014.5
20260510074418 54 28 0.0 0.0 0.00 0.00 0.00 66 1014.6
20260510074303 54 28 0.0 0.0 0.00 0.00 0.00 66 1014.5
20260510074203 54 28 0.0 0.0 0.00 0.00 0.00 66 1014.6
20260510074110 54 28 0.0 0.0 0.00 0.00 0.00 66 1014.6
20260510074021 54 28 0.0 0.0 0.00 0.00 0.00 66 1014.6
20260510074012 54 28 0.0 0.0 0.00 0.00 0.00 66 1014.5
20260510074001 54 28 0.0 0.0 0.00 0.00 0.00 66 1014.6
20260510073723 55 28 0.0 0.0 0.00 0.00 0.00 66 1014.6
20260510073404 55 28 0.0 0.0 0.00 0.00 0.00 65 1014.6
20260510073303 55 28 0.0 0.0 0.00 0.00 0.00 65 1014.6
20260510073212 55 28 0.0 0.0 0.00 0.00 0.00 65 1014.7
20260510073102 55 28 0.0 0.0 0.00 0.00 0.00 66 1014.7
20260510073002 55 28 0.0 0.0 0.00 0.00 0.00 65 1014.6
20260510072905 55 28 0.0 0.0 0.00 0.00 0.00 65 1014.6
20260510072802 55 28 0.0 0.0 0.00 0.00 0.00 65 1014.7
20260510072713 55 28 0.0 0.0 0.00 0.00 0.00 65 1014.6
20260510072555 55 28 0.0 0.0 0.00 0.00 0.00 65 1014.6
20260510072453 55 28 0.0 0.0 0.00 0.00 0.00 65 1014.6
20260510072435 55 28 0.0 0.0 0.00 0.00 0.00 65 1014.7
20260510072425 55 28 0.0 0.0 0.00 0.00 0.00 65 1014.7
20260510072052 55 28 0.0 0.0 0.00 0.00 0.00 65 1014.7
20260510071951 55 28 0.0 0.0 0.00 0.00 0.00 64 1014.7
20260510071840 56 28 0.0 0.0 0.00 0.00 0.00 65 1014.7
20260510071731 56 28 0.0 0.0 0.00 0.00 0.00 64 1014.7
20260510071630 56 28 0.0 0.0 0.00 0.00 0.00 64 1014.7
20260510071529 56 28 0.0 0.0 0.00 0.00 0.00 64 1014.7
20260510071429 56 28 0.0 0.0 0.00 0.00 0.00 64 1014.7
20260510071330 56 28 0.0 0.0 0.00 0.00 0.00 64 1014.7
20260510071229 56 28 0.0 0.0 0.00 0.00 0.00 64 1014.7
20260510071132 56 28 0.0 0.0 0.00 0.00 0.00 64 1014.7
20260510071058 56 28 0.0 0.0 0.00 0.00 0.00 64 1014.7
20260510071050 56 28 0.0 0.0 0.00 0.00 0.00 63 1014.7
20260510070731 56 28 0.0 0.0 0.00 0.00 0.00 63 1014.7
20260510070629 56 28 0.0 0.0 0.00 0.00 0.00 63 1014.7
20260510070528 56 28 0.0 0.0 0.00 0.00 0.00 63 1014.7
20260510070450 56 28 0.0 0.0 0.00 0.00 0.00 63 1014.7
20260510070435 56 28 0.0 0.0 0.00 0.00 0.00 63 1014.7
20260510070424 56 28 0.0 0.0 0.00 0.00 0.00 63 1014.6
20260510070145 56 28 0.0 0.0 0.00 0.00 0.00 63 1014.7
20260510065823 57 28 0.0 0.0 0.00 0.00 0.00 62 1014.7
20260510065724 57 28 0.0 0.0 0.00 0.00 0.00 62 1014.6
20260510065621 57 28 0.0 0.0 0.00 0.00 0.00 62 1014.6
20260510065509 57 28 0.0 0.0 0.00 0.00 0.00 62 1014.6
20260510065406 57 28 0.0 0.0 0.00 0.00 0.00 62 1014.7
20260510065306 57 28 0.0 0.0 0.00 0.00 0.00 62 1014.6
20260510065206 57 28 0.0 0.0 0.00 0.00 0.00 62 1014.7
20260510065103 57 28 0.0 0.0 0.00 0.00 0.00 62 1014.7
20260510065035 57 28 0.0 0.0 0.00 0.00 0.00 62 1014.7
20260510065026 57 28 0.0 0.0 0.00 0.00 0.00 62 1014.7
20260510064701 57 28 0.0 0.0 0.00 0.00 0.00 61 1014.7
20260510064605 57 28 0.0 0.0 0.00 0.00 0.00 62 1014.6
20260510064501 57 28 0.0 0.0 0.00 0.00 0.00 62 1014.6
20260510064403 57 28 0.0 0.0 0.00 0.00 0.00 62 1014.6
20260510064301 57 28 0.0 0.0 0.00 0.00 0.00 61 1014.6
20260510064202 58 28 0.0 0.0 0.00 0.00 0.00 61 1014.6
20260510064101 58 28 0.0 0.0 0.00 0.00 0.00 61 1014.6
20260510064004 58 28 0.0 0.0 0.00 0.00 0.00 61 1014.6
20260510063936 58 28 0.0 0.0 0.00 0.00 0.00 61 1014.6
20260510063926 58 28 0.0 0.0 0.00 0.00 0.00 61 1014.6
20260510063916 58 28 0.0 0.0 0.00 0.00 0.00 61 1014.6
20260510063851 58 28 0.0 0.0 0.00 0.00 0.00 61 1014.6
20260510063621 58 28 0.0 0.0 0.00 0.00 0.00 61 1014.6
20260510063612 58 28 0.0 0.0 0.00 0.00 0.00 61 1014.6
20260510063328 58 28 0.0 0.0 0.00 0.00 0.00 61 1014.6
20260510062817 58 28 0.0 0.0 0.00 0.00 0.00 61 1014.6
20260510062808 58 28 0.0 0.0 0.00 0.00 0.00 61 1014.6
20260510062745 58 28 0.0 0.0 0.00 0.00 0.00 61 1014.5
20260510062704 58 28 0.0 0.0 0.00 0.00 0.00 61 1014.5
20260510062209 59 28 0.0 0.0 0.00 0.00 0.00 60 1014.5
20260510062148 59 28 0.0 0.0 0.00 0.00 0.00 61 1014.5
20260510061908 59 28 0.0 0.0 0.00 0.00 0.00 60 1014.5
20260510061857 59 28 0.0 0.0 0.00 0.00 0.00 60 1014.5
20260510061536 59 28 0.0 0.0 0.00 0.00 0.00 58 1014.5
20260510061429 59 28 0.0 0.0 0.00 0.00 0.00 58 1014.5
20260510061408 59 28 0.0 0.0 0.00 0.00 0.00 58 1014.6
20260510061357 59 28 0.0 0.0 0.00 0.00 0.00 59 1014.6
20260510061030 59 28 0.0 0.0 0.00 0.00 0.00 59 1014.6
20260510060928 59 28 0.0 0.0 0.00 0.00 0.00 59 1014.6
20260510060839 59 28 0.0 0.0 0.00 0.00 0.00 58 1014.7
20260510060823 59 28 0.0 0.0 0.00 0.00 0.00 58 1014.7
20260510060815 60 28 0.0 0.0 0.00 0.00 0.00 59 1014.7
20260510060753 60 28 0.0 0.0 0.00 0.00 0.00 59 1014.7
20260510060741 60 28 0.0 0.0 0.00 0.00 0.00 59 1014.7
20260510060730 60 28 0.0 0.0 0.00 0.00 0.00 59 1014.7
20260510060450 60 28 0.0 0.0 0.00 0.00 0.00 59 1014.7
20260510060219 60 28 0.0 0.0 0.00 0.00 0.00 59 1014.7
20260510055949 60 28 0.0 0.0 0.00 0.00 0.00 59 1014.7
20260510055705 60 28 0.0 0.0 0.00 0.00 0.00 59 1014.7
20260510055358 60 28 0.0 0.0 0.00 0.00 0.00 57 1014.7
20260510055349 60 28 0.0 0.0 0.00 0.00 0.00 58 1014.7
20260510055326 60 28 0.0 0.0 0.00 0.00 0.00 58 1014.7
20260510055317 61 28 0.0 0.0 0.00 0.00 0.00 58 1014.7
20260510055307 61 28 0.0 0.0 0.00 0.00 0.00 58 1014.7
20260510054502 61 28 0.0 1.0 0.00 0.00 0.00 59 1014.7
20260510054403 61 28 0.0 1.0 0.00 0.00 0.00 58 1014.7
20260510054304 61 28 0.0 1.0 0.00 0.00 0.00 58 1014.7
20260510054203 61 28 0.0 1.0 0.00 0.00 0.00 58 1014.7
20260510054129 61 28 0.0 1.0 0.00 0.00 0.00 58 1014.7
20260510054116 61 28 0.0 1.0 0.00 0.00 0.00 58 1014.7
20260510054105 61 28 0.0 1.0 0.00 0.00 0.00 58 1014.7
20260510053838 62 28 0.0 1.0 0.00 0.00 0.00 59 1014.7
20260510053502 62 27 0.0 1.0 0.00 0.00 0.00 58 1014.6
20260510053435 62 27 0.0 1.0 0.00 0.00 0.00 58 1014.6
20260510053425 62 27 0.0 1.0 0.00 0.00 0.00 59 1014.6
20260510053102 62 27 0.0 2.0 0.00 0.00 0.00 58 1014.6
20260510053004 62 27 0.0 2.0 0.00 0.00 0.00 58 1014.6
20260510052902 62 27 0.0 2.0 0.00 0.00 0.00 58 1014.6
20260510052802 62 27 0.0 2.0 0.00 0.00 0.00 57 1014.6
20260510052707 62 27 0.0 2.0 0.00 0.00 0.00 57 1014.6
20260510052604 62 27 0.0 2.0 0.00 0.00 0.00 57 1014.7
20260510052504 62 27 0.0 2.0 0.00 0.00 0.00 57 1014.6
20260510052432 62 27 1.0 2.0 0.00 0.00 0.00 56 1014.6
20260510052420 62 27 1.0 2.0 0.00 0.00 0.00 56 1014.6
20260510052102 62 144 0.0 1.0 0.00 0.00 0.00 56 1014.7
20260510052004 62 144 0.0 1.0 0.00 0.00 0.00 56 1014.7
20260510051910 62 144 0.0 0.0 0.00 0.00 0.00 56 1014.7
20260510051901 62 144 0.0 0.0 0.00 0.00 0.00 56 1014.7
20260510051851 62 144 0.0 0.0 0.00 0.00 0.00 56 1014.7
20260510051840 63 144 0.0 0.0 0.00 0.00 0.00 56 1014.7
20260510051815 63 144 0.0 0.0 0.00 0.00 0.00 56 1014.8
20260510051330 63 144 0.0 0.0 0.00 0.00 0.00 55 1014.7
20260510051004 63 144 0.0 0.0 0.00 0.00 0.00 55 1014.7
20260510050907 63 144 0.0 0.0 0.00 0.00 0.00 55 1014.7
20260510050803 63 144 0.0 0.0 0.00 0.00 0.00 55 1014.7
20260510050702 63 144 0.0 1.0 0.00 0.00 0.00 55 1014.7
20260510050631 63 144 0.0 1.0 0.00 0.00 0.00 55 1014.7
20260510050602 63 144 0.0 1.0 0.00 0.00 0.00 54 1014.7
20260510050554 63 144 0.0 1.0 0.00 0.00 0.00 55 1014.8
20260510050541 63 144 0.0 1.0 0.00 0.00 0.00 54 1014.7
20260510045953 63 144 0.0 1.0 0.00 0.00 0.00 55 1014.7
20260510045941 63 144 0.0 1.0 0.00 0.00 0.00 55 1014.8
20260510045929 64 144 0.0 1.0 0.00 0.00 0.00 54 1014.8
20260510045918 64 144 0.0 1.0 0.00 0.00 0.00 54 1014.8
20260510045637 64 144 0.0 1.0 0.00 0.00 0.00 54 1014.8
20260510045248 64 144 0.0 1.0 0.00 0.00 0.00 54 1014.8
20260510045149 64 144 0.0 1.0 0.00 0.00 0.00 54 1014.8
20260510045051 64 144 0.0 1.0 0.00 0.00 0.00 54 1014.8
20260510044947 64 144 0.0 1.0 0.00 0.00 0.00 54 1014.8
20260510044846 64 144 0.0 1.0 0.00 0.00 0.00 54 1014.8
20260510044747 64 144 0.0 1.0 0.00 0.00 0.00 54 1014.8
20260510044641 64 144 0.0 1.0 0.00 0.00 0.00 53 1014.8
20260510044533 64 144 0.0 1.0 0.00 0.00 0.00 53 1014.8
20260510044513 64 144 0.0 1.0 0.00 0.00 0.00 53 1014.8
20260510044504 64 144 0.0 1.0 0.00 0.00 0.00 53 1014.8
20260510044452 64 144 0.0 1.0 0.00 0.00 0.00 53 1014.7
20260510044212 64 144 0.0 1.0 0.00 0.00 0.00 53 1014.8
20260510043942 65 144 0.0 1.0 0.00 0.00 0.00 52 1014.8
20260510043932 65 144 0.0 1.0 0.00 0.00 0.00 52 1014.8
20260510043921 65 144 0.0 1.0 0.00 0.00 0.00 52 1014.8
20260510043357 65 144 0.0 1.0 0.00 0.00 0.00 52 1014.9
20260510043347 65 144 0.0 1.0 0.00 0.00 0.00 52 1014.9
20260510043030 65 144 0.0 1.0 0.00 0.00 0.00 51 1014.9
20260510042930 65 144 0.0 1.0 0.00 0.00 0.00 51 1014.9
20260510042830 65 144 0.0 1.0 0.00 0.00 0.00 52 1014.9
20260510042729 65 144 0.0 1.0 0.00 0.00 0.00 51 1014.9
20260510042623 65 144 0.0 0.0 0.00 0.00 0.00 51 1014.9
20260510042519 65 144 0.0 0.0 0.00 0.00 0.00 51 1014.9
20260510042418 65 144 0.0 0.0 0.00 0.00 0.00 51 1014.9
20260510042316 65 144 0.0 0.0 0.00 0.00 0.00 50 1014.9
20260510042214 65 144 0.0 0.0 0.00 0.00 0.00 50 1014.9
20260510042115 65 144 0.0 0.0 0.00 0.00 0.00 49 1014.9
20260510042008 66 144 0.0 1.0 0.00 0.00 0.00 49 1015.0
20260510041902 66 144 0.0 1.0 0.00 0.00 0.00 49 1015.0
20260510041804 66 144 0.0 1.0 0.00 0.00 0.00 49 1015.0
20260510041702 66 144 0.0 1.0 0.00 0.00 0.00 49 1015.0
20260510041603 66 144 0.0 1.0 0.00 0.00 0.00 50 1014.9
20260510041502 66 144 0.0 1.0 0.00 0.00 0.00 50 1014.9
20260510041404 66 144 0.0 1.0 0.00 0.00 0.00 50 1014.9
20260510041302 66 144 0.0 1.0 0.00 0.00 0.00 49 1014.9
20260510041206 66 144 0.0 1.0 0.00 0.00 0.00 50 1014.9
20260510041101 66 144 0.0 1.0 0.00 0.00 0.00 49 1014.8
20260510040901 66 144 0.0 0.0 0.00 0.00 0.00 49 1014.8
20260510040803 67 144 0.0 0.0 0.00 0.00 0.00 48 1014.8
20260510040701 67 144 0.0 0.0 0.00 0.00 0.00 49 1014.9
20260510040601 67 144 0.0 0.0 0.00 0.00 0.00 49 1014.9
20260510040501 67 144 0.0 0.0 0.00 0.00 0.00 49 1014.8
20260510040402 67 144 0.0 0.0 0.00 0.00 0.00 49 1014.8
20260510040301 67 144 0.0 0.0 0.00 0.00 0.00 48 1014.8
20260510040228 67 144 0.0 0.0 0.00 0.00 0.00 48 1014.8
20260510040217 67 144 0.0 0.0 0.00 0.00 0.00 48 1014.8
20260510040156 67 144 0.0 1.0 0.00 0.00 0.00 48 1014.8
20260510040143 67 144 0.0 1.0 0.00 0.00 0.00 48 1014.8
20260510035915 67 144 0.0 1.0 0.00 0.00 0.00 48 1014.8
20260510035904 67 144 0.0 1.0 0.00 0.00 0.00 48 1014.8
20260510035401 68 144 0.0 1.0 0.00 0.00 0.00 47 1014.8
20260510035352 68 144 0.0 1.0 0.00 0.00 0.00 46 1014.8
20260510035341 68 144 0.0 1.0 0.00 0.00 0.00 46 1014.8
20260510035249 68 144 0.0 1.0 0.00 0.00 0.00 46 1014.8
20260510035236 68 144 0.0 1.0 0.00 0.00 0.00 46 1014.8
20260510035006 68 144 0.0 1.0 0.00 0.00 0.00 46 1014.8
20260510034956 68 144 0.0 1.0 0.00 0.00 0.00 46 1014.7
20260510034713 69 144 0.0 1.0 0.00 0.00 0.00 45 1014.7
20260510034228 69 144 0.0 1.0 0.00 0.00 0.00 44 1014.7
20260510033858 69 144 0.0 1.0 0.00 0.00 0.00 44 1014.7
20260510033754 69 144 0.0 1.0 0.00 0.00 0.00 44 1014.8
20260510033648 69 144 0.0 1.0 0.00 0.00 0.00 44 1014.8
20260510033551 69 144 0.0 2.0 0.00 0.00 0.00 43 1014.8
20260510033518 69 144 0.0 2.0 0.00 0.00 0.00 43 1014.8
20260510033509 69 144 0.0 2.0 0.00 0.00 0.00 43 1014.9
20260510033154 70 144 0.0 2.0 0.00 0.00 0.00 43 1014.9
20260510033138 70 144 0.0 2.0 0.00 0.00 0.00 43 1014.9
20260510033116 70 144 0.0 2.0 0.00 0.00 0.00 42 1014.8
20260510033105 70 144 1.0 2.0 0.00 0.00 0.00 42 1014.8
20260510032537 70 127 1.0 1.0 0.00 0.00 0.00 42 1014.8
20260510032430 71 127 0.0 1.0 0.00 0.00 0.00 42 1014.8
20260510032329 71 127 0.0 1.0 0.00 0.00 0.00 41 1014.8
20260510032229 71 127 0.0 1.0 0.00 0.00 0.00 40 1014.8
20260510032134 71 127 0.0 1.0 0.00 0.00 0.00 40 1014.8
20260510032035 71 127 0.0 1.0 0.00 0.00 0.00 39 1014.8
20260510031931 71 127 0.0 0.0 0.00 0.00 0.00 38 1014.8
20260510031902 71 127 0.0 1.0 0.00 0.00 0.00 38 1014.7
20260510031851 71 127 0.0 1.0 0.00 0.00 0.00 38 1014.7
20260510031536 72 127 0.0 1.0 0.00 0.00 0.00 38 1014.7
20260510031429 72 127 0.0 1.0 0.00 0.00 0.00 38 1014.7
20260510031330 72 127 0.0 1.0 0.00 0.00 0.00 38 1014.7
20260510031228 72 127 0.0 1.0 0.00 0.00 0.00 38 1014.7
20260510031129 72 127 0.0 1.0 0.00 0.00 0.00 38 1014.8
20260510031030 72 127 0.0 1.0 0.00 0.00 0.00 38 1014.8
20260510030926 72 127 0.0 1.0 0.00 0.00 0.00 38 1014.7
20260510030822 72 127 0.0 2.0 0.00 0.00 0.00 38 1014.7
20260510030751 72 127 0.0 2.0 0.00 0.00 0.00 37 1014.8
20260510030739 72 127 0.0 2.0 0.00 0.00 0.00 37 1014.8
20260510030406 73 127 0.0 2.0 0.00 0.00 0.00 36 1014.8
20260510030305 73 127 0.0 2.0 0.00 0.00 0.00 36 1014.8
20260510030201 73 126 1.0 2.0 0.00 0.00 0.00 35 1014.7
20260510030002 73 107 0.0 2.0 0.00 0.00 0.00 34 1014.8
20260510025902 73 104 0.0 2.0 0.00 0.00 0.00 34 1014.7
20260510025803 73 103 0.0 1.0 0.00 0.00 0.00 34 1014.7
20260510025703 73 103 0.0 1.0 0.00 0.00 0.00 34 1014.7
20260510025648 73 103 0.0 1.0 0.00 0.00 0.00 34 1014.7
20260510025623 73 103 0.0 1.0 0.00 0.00 0.00 34 1014.7
20260510025309 74 103 0.0 1.0 0.00 0.00 0.00 34 1014.7
20260510025201 74 103 0.0 1.0 0.00 0.00 0.00 34 1014.8
20260510025102 74 107 0.0 1.0 0.00 0.00 0.00 35 1014.8
20260510025023 74 107 0.0 1.0 0.00 0.00 0.00 35 1014.8
20260510025011 74 107 0.0 2.0 0.00 0.00 0.00 33 1014.8
20260510024650 74 100 0.0 2.0 0.00 0.00 0.00 34 1014.9
20260510024550 74 100 1.0 2.0 0.00 0.00 0.00 33 1014.8
20260510024447 74 99 1.0 2.0 0.00 0.00 0.00 33 1014.9
20260510024349 74 99 1.0 2.0 0.00 0.00 0.00 33 1014.8
20260510024243 74 99 0.0 2.0 0.00 0.00 0.00 33 1014.8
20260510024156 74 99 1.0 2.0 0.00 0.00 0.00 33 1014.9
20260510024143 74 99 1.0 2.0 0.00 0.00 0.00 33 1014.9
20260510024120 74 97 0.0 2.0 0.00 0.00 0.00 33 1014.9
20260510023849 74 91 1.0 2.0 0.00 0.00 0.00 33 1014.9
20260510023535 74 98 1.0 2.0 0.00 0.00 0.00 33 1014.9
20260510023502 75 113 1.0 3.0 0.00 0.00 0.00 33 1014.9
20260510023449 75 110 0.0 3.0 0.00 0.00 0.00 33 1015.0
20260510023129 75 105 1.0 3.0 0.00 0.00 0.00 33 1015.0
20260510023030 75 105 1.0 3.0 0.00 0.00 0.00 33 1015.0
20260510022923 75 105 1.0 3.0 0.00 0.00 0.00 33 1015.0
20260510022825 75 101 0.0 3.0 0.00 0.00 0.00 33 1015.0
20260510022721 75 88 1.0 3.0 0.00 0.00 0.00 34 1015.0
20260510022702 75 85 1.0 3.0 0.00 0.00 0.00 33 1015.0
20260510022649 75 87 1.0 3.0 0.00 0.00 0.00 33 1015.0
20260510022314 75 84 1.0 4.0 0.00 0.00 0.00 33 1015.1
20260510022214 75 84 2.0 4.0 0.00 0.00 0.00 33 1015.0
20260510022113 75 93 2.0 4.0 0.00 0.00 0.00 33 1015.0
20260510022016 75 78 1.0 4.0 0.00 0.00 0.00 33 1015.0
20260510021906 75 107 1.0 4.0 0.00 0.00 0.00 33 1015.0
20260510021805 75 57 1.0 4.0 0.00 0.00 0.00 33 1015.0
20260510021711 75 88 1.0 4.0 0.00 0.00 0.00 34 1015.0
20260510021654 75 65 1.0 4.0 0.00 0.00 0.00 34 1015.0
20260510021639 75 80 2.0 4.0 0.00 0.00 0.00 34 1015.0
20260510021303 75 81 1.0 3.0 0.00 0.00 0.00 34 1015.1
20260510021239 76 72 2.0 3.0 0.00 0.00 0.00 34 1015.1
20260510021230 76 53 2.0 3.0 0.00 0.00 0.00 34 1015.1
20260510020901 76 51 0.0 4.0 0.00 0.00 0.00 34 1015.1
20260510020801 76 102 1.0 4.0 0.00 0.00 0.00 35 1015.1
20260510020701 75 101 1.0 4.0 0.00 0.00 0.00 35 1015.1
20260510020603 75 101 1.0 4.0 0.00 0.00 0.00 34 1015.0
20260510020507 76 81 1.0 4.0 0.00 0.00 0.00 34 1015.0
20260510020402 76 98 1.0 4.0 0.00 0.00 0.00 34 1015.0
20260510020302 76 103 2.0 4.0 0.00 0.00 0.00 34 1015.0
20260510020203 76 87 2.0 4.0 0.00 0.00 0.00 34 1015.1
20260510020101 76 68 2.0 4.0 0.00 0.00 0.00 33 1015.0
20260510020006 76 91 1.0 4.0 0.00 0.00 0.00 33 1015.0
20260510015901 76 86 1.0 4.0 0.00 0.00 0.00 33 1015.1
20260510015801 76 86 2.0 4.0 0.00 0.00 0.00 33 1015.1
20260510015701 76 96 2.0 4.0 0.00 0.00 0.00 33 1015.1
20260510015601 76 80 2.0 4.0 0.00 0.00 0.00 33 1015.1
20260510015502 76 84 2.0 4.0 0.00 0.00 0.00 32 1015.1
20260510015401 76 93 2.0 5.0 0.00 0.00 0.00 32 1015.1
20260510015306 76 73 2.0 5.0 0.00 0.00 0.00 32 1015.1
20260510015200 76 63 2.0 5.0 0.00 0.00 0.00 32 1015.1
20260510015101 76 12 2.0 5.0 0.00 0.00 0.00 32 1015.1
20260510015000 76 67 2.0 5.0 0.00 0.00 0.00 32 1015.1
20260510014903 76 97 2.0 5.0 0.00 0.00 0.00 32 1015.1
20260510014801 76 47 2.0 5.0 0.00 0.00 0.00 32 1015.1
20260510014700 76 69 2.0 5.0 0.00 0.00 0.00 32 1015.1
20260510014631 76 73 2.0 7.0 0.00 0.00 0.00 33 1015.2
20260510014617 76 58 2.0 7.0 0.00 0.00 0.00 31 1015.2
20260510014554 76 41 2.0 7.0 0.00 0.00 0.00 32 1015.2
20260510014323 76 119 2.0 7.0 0.00 0.00 0.00 32 1015.3
20260510014001 76 67 2.0 7.0 0.00 0.00 0.00 32 1015.3
20260510013901 76 85 2.0 7.0 0.00 0.00 0.00 32 1015.3
20260510013801 76 86 2.0 7.0 0.00 0.00 0.00 32 1015.3
20260510013701 76 88 1.0 7.0 0.00 0.00 0.00 33 1015.3
20260510013602 76 44 2.0 4.0 0.00 0.00 0.00 33 1015.2
20260510013504 76 148 1.0 4.0 0.00 0.00 0.00 32 1015.2
20260510013401 76 80 1.0 4.0 0.00 0.00 0.00 33 1015.2
20260510013301 76 73 1.0 4.0 0.00 0.00 0.00 33 1015.2
20260510013201 76 95 1.0 4.0 0.00 0.00 0.00 33 1015.2
20260510013100 76 82 1.0 4.0 0.00 0.00 0.00 33 1015.2
20260510013003 76 78 1.0 4.0 0.00 0.00 0.00 33 1015.3
20260510012901 76 171 1.0 4.0 0.00 0.00 0.00 33 1015.3
20260510012803 76 104 1.0 4.0 0.00 0.00 0.00 32 1015.2
20260510012701 76 111 1.0 4.0 0.00 0.00 0.00 32 1015.3
20260510012616 77 101 2.0 4.0 0.00 0.00 0.00 33 1015.3
20260510012559 77 94 2.0 5.0 0.00 0.00 0.00 33 1015.3
20260510012536 77 37 2.0 8.0 0.00 0.00 0.00 33 1015.3
20260510012306 77 60 2.0 8.0 0.00 0.00 0.00 33 1015.4
20260510012251 77 84 2.0 8.0 0.00 0.00 0.00 34 1015.4
20260510011858 77 71 1.0 8.0 0.00 0.00 0.00 33 1015.5
20260510011753 77 79 2.0 8.0 0.00 0.00 0.00 33 1015.4
20260510011739 77 96 4.0 8.0 0.00 0.00 0.00 33 1015.5
20260510011727 77 67 4.0 8.0 0.00 0.00 0.00 32 1015.5
20260510011713 77 81 2.0 6.0 0.00 0.00 0.00 31 1015.5
20260510011647 77 71 2.0 6.0 0.00 0.00 0.00 32 1015.5
20260510011636 77 109 2.0 6.0 0.00 0.00 0.00 32 1015.5
20260510011624 77 99 2.0 6.0 0.00 0.00 0.00 32 1015.5
20260510011612 77 104 2.0 6.0 0.00 0.00 0.00 32 1015.6
20260510010615 77 260 2.0 5.0 0.00 0.00 0.00 32 1015.6
20260510010558 77 124 1.0 5.0 0.00 0.00 0.00 32 1015.5
20260510010534 77 94 2.0 4.0 0.00 0.00 0.00 32 1015.6
20260510010521 77 84 2.0 4.0 0.00 0.00 0.00 32 1015.6
20260510010019 77 30 1.0 6.0 0.00 0.00 0.00 33 1015.6
20260510005955 77 110 1.0 6.0 0.00 0.00 0.00 33 1015.6
20260510005944 77 78 2.0 6.0 0.00 0.00 0.00 33 1015.7
20260510005712 77 11 1.0 6.0 0.00 0.00 0.00 32 1015.7
20260510005659 77 352 2.0 6.0 0.00 0.00 0.00 32 1015.6
20260510005634 77 15 3.0 6.0 0.00 0.00 0.00 31 1015.7
20260510005405 78 60 2.0 4.0 0.00 0.00 0.00 31 1015.7
20260510005352 78 60 2.0 8.0 0.00 0.00 0.00 32 1015.7
20260510005340 78 92 2.0 8.0 0.00 0.00 0.00 32 1015.7
20260510005318 78 48 1.0 8.0 0.00 0.00 0.00 33 1015.7
20260510005048 78 57 2.0 8.0 0.00 0.00 0.00 32 1015.7
20260510005036 78 76 1.0 8.0 0.00 0.00 0.00 32 1015.7
20260510004503 78 66 3.0 8.0 0.00 0.00 0.00 32 1015.7
20260510004233 78 91 2.0 7.0 0.00 0.00 0.00 31 1015.8
20260510004219 78 68 1.0 7.0 0.00 0.00 0.00 31 1015.8
20260510003629 78 53 1.0 6.0 0.00 0.00 0.00 34 1015.8
20260510003530 78 94 2.0 7.0 0.00 0.00 0.00 33 1015.8
20260510003429 78 0 2.0 7.0 0.00 0.00 0.00 32 1015.8
20260510003323 78 74 2.0 7.0 0.00 0.00 0.00 33 1015.8
20260510003225 78 95 2.0 7.0 0.00 0.00 0.00 33 1015.9
20260510003131 78 352 2.0 7.0 0.00 0.00 0.00 34 1015.8
20260510003115 78 59 2.0 7.0 0.00 0.00 0.00 34 1015.9
20260510003103 78 28 2.0 7.0 0.00 0.00 0.00 33 1015.9
20260510002820 78 64 3.0 7.0 0.00 0.00 0.00 35 1015.9
20260510002809 78 11 3.0 7.0 0.00 0.00 0.00 32 1015.9
20260510002530 78 12 1.0 6.0 0.00 0.00 0.00 33 1016.0
20260510002506 78 318 1.0 6.0 0.00 0.00 0.00 33 1015.9
20260510002233 78 42 2.0 6.0 0.00 0.00 0.00 33 1015.9
20260510001951 78 348 2.0 6.0 0.00 0.00 0.00 35 1015.9
20260510001813 78 9 2.0 6.0 0.00 0.00 0.00 33 1016.0
20260510001713 78 352 2.0 6.0 0.00 0.00 0.00 34 1016.0
20260510001612 78 31 3.0 6.0 0.00 0.00 0.00 34 1016.0
20260510001512 78 80 3.0 5.0 0.00 0.00 0.00 34 1016.0
20260510001419 78 63 2.0 5.0 0.00 0.00 0.00 33 1016.0
20260510001314 78 92 2.0 5.0 0.00 0.00 0.00 35 1016.0
20260510001210 78 59 2.0 6.0 0.00 0.00 0.00 35 1016.0
20260510001112 78 77 2.0 6.0 0.00 0.00 0.00 35 1015.9
20260510001008 78 42 1.0 6.0 0.00 0.00 0.00 35 1016.0
20260510000916 78 59 2.0 6.0 0.00 0.00 0.00 35 1016.0
20260510000808 78 26 2.0 6.0 0.00 0.00 0.00 35 1016.0
20260510000707 78 336 1.0 6.0 0.00 0.00 0.00 34 1016.0
20260510000608 78 300 2.0 6.0 0.00 0.00 0.00 34 1015.9
20260510000503 78 74 4.0 6.0 0.00 0.00 0.00 35 1016.0
20260510000411 78 0 3.0 6.0 0.00 0.00 0.00 34 1015.9
20260510000304 78 117 2.0 6.0 0.00 0.00 0.00 34 1015.9
20260510000233 78 88 2.0 6.0 0.00 0.00 0.00 35 1015.9
20260510000221 78 180 2.0 9.0 0.00 0.00 0.00 35 1016.0
20260509235911 78 48 3.0 9.0 0.00 0.00 0.00 34 1016.0
20260509235800 78 52 2.0 9.0 0.00 0.00 0.00 35 1016.0
20260509235701 78 61 2.0 9.0 0.00 0.00 0.00 35 1016.0
20260509235601 78 63 2.0 9.0 0.00 0.00 0.00 34 1016.0
20260509235505 78 107 2.0 9.0 0.00 0.00 0.00 34 1016.0
20260509235408 78 96 3.0 9.0 0.00 0.00 0.00 34 1016.0
20260509235306 78 96 4.0 9.0 0.00 0.00 0.00 35 1016.0
20260509235201 77 121 2.0 10.0 0.00 0.00 0.00 36 1016.0
20260509235103 77 72 2.0 10.0 0.00 0.00 0.00 36 1016.0
20260509235028 77 5 1.0 10.0 0.00 0.00 0.00 35 1016.0
20260509235013 77 15 1.0 10.0 0.00 0.00 0.00 36 1016.1
20260509234951 77 62 2.0 10.0 0.00 0.00 0.00 36 1016.1
20260509234637 77 74 4.0 10.0 0.00 0.00 0.00 34 1016.1
20260509234624 78 70 4.0 10.0 0.00 0.00 0.00 34 1016.1
20260509234301 78 64 3.0 10.0 0.00 0.00 0.00 35 1016.1
20260509234233 78 0 3.0 5.0 0.00 0.00 0.00 34 1016.2
20260509234221 78 348 1.0 5.0 0.00 0.00 0.00 36 1016.2
20260509233904 78 58 2.0 5.0 0.00 0.00 0.00 35 1016.1
20260509233802 78 150 1.0 5.0 0.00 0.00 0.00 34 1016.1
20260509233702 78 126 1.0 5.0 0.00 0.00 0.00 34 1016.2
20260509233645 77 237 1.0 6.0 0.00 0.00 0.00 35 1016.1
20260509233634 77 77 2.0 6.0 0.00 0.00 0.00 35 1016.1
20260509233345 77 59 3.0 6.0 0.00 0.00 0.00 36 1016.2
20260509233333 77 348 3.0 6.0 0.00 0.00 0.00 35 1016.2
20260509233323 77 352 3.0 6.0 0.00 0.00 0.00 37 1016.2
20260509233050 77 17 4.0 6.0 0.00 0.00 0.00 34 1016.2
20260509232803 77 330 2.0 6.0 0.00 0.00 0.00 35 1016.2
20260509232752 78 352 1.0 5.0 0.00 0.00 0.00 35 1016.2
20260509232518 77 78 2.0 5.0 0.00 0.00 0.00 35 1016.2
20260509232455 77 301 3.0 5.0 0.00 0.00 0.00 35 1016.2
20260509232442 77 46 3.0 5.0 0.00 0.00 0.00 35 1016.2
20260509232430 77 75 2.0 5.0 0.00 0.00 0.00 34 1016.2
20260509232157 77 27 2.0 5.0 0.00 0.00 0.00 35 1016.3
20260509232135 77 17 2.0 5.0 0.00 0.00 0.00 34 1016.3
20260509232124 77 222 2.0 6.0 0.00 0.00 0.00 34 1016.3
20260509231852 77 297 2.0 6.0 0.00 0.00 0.00 34 1016.3
20260509231556 77 347 2.0 8.0 0.00 0.00 0.00 36 1016.4
20260509231323 77 352 3.0 8.0 0.00 0.00 0.00 34 1016.4
20260509231311 77 284 3.0 8.0 0.00 0.00 0.00 35 1016.6
20260509230805 77 295 4.0 8.0 0.00 0.00 0.00 34 1016.4
20260509230444 77 352 4.0 8.0 0.00 0.00 0.00 34 1016.4
20260509230350 77 9 3.0 6.0 0.00 0.00 0.00 35 1016.4
20260509230243 78 15 2.0 6.0 0.00 0.00 0.00 34 1016.4
20260509230143 78 5 2.0 6.0 0.00 0.00 0.00 32 1016.4
20260509230121 78 299 3.0 6.0 0.00 0.00 0.00 32 1016.4
20260509230108 78 352 2.0 6.0 0.00 0.00 0.00 34 1016.4
20260509225739 78 273 2.0 6.0 0.00 0.00 0.00 33 1016.6